﻿<?xml version="1.0" encoding="UTF-8" standalone="no" ?>
<gpx xmlns="http://www.topografix.com/GPX/1/1" creator="CompeGPS" version="1.1" xmlns:xsi="http://www.w3.org/2001/XMLSchema-instance" xsi:schemaLocation="http://www.topografix.com/GPX/1/1 http://www.topografix.com/GPX/1/1/gpx.xsd http://www.garmin.com/xmlschemas/GpxExtensions/v3 http://www.garmin.com/xmlschemas/GpxExtensionsv3.xsd http://www.garmin.com/xmlschemas/TrackPointExtension/v1 http://www.garmin.com/xmlschemas/TrackPointExtensionv1.xsd" xmlns:gpxtpx="http://www.garmin.com/xmlschemas/TrackPointExtension/v1">
  <metadata>
    <link href="http://www.compegps.com">
      <text>CompeGPS TEAM, SL</text>
    </link>
    <time>2013-02-09T19:51:28Z</time>
    <bounds maxlat="42.866553" maxlon="1.085327" minlat="42.852214" minlon="1.057373"/>
  </metadata>
 <wpt lat="42.863790" lon="1.085327">
<ele>1050</ele>
<name>Parking Bethmale</name>
</wpt>
<wpt lat="42.866553" lon="1.071768">
<ele>1200</ele>
<name>Quitter la piste</name>
</wpt>
<wpt lat="42.861645" lon="1.068278">
<ele>1400</ele>
<name>Piste forestiere</name>
</wpt>
<wpt lat="42.852214" lon="1.063489">
<ele>1400</ele>
<name>Cabane de  Campuls</name>
</wpt>
 <trk>
    <name>cabane de campuls</name>
    <trkseg>
      <trkpt lat="42.863790" lon="1.085327">
        <ele>1051.8</ele>
        <time>2013-02-02T15:44:18Z</time>
        <name>Parking Bethmale</name>
      </trkpt>
      <trkpt lat="42.863686" lon="1.085246">
        <ele>1052.3</ele>
        <time>2013-02-02T15:44:31Z</time>
      </trkpt>
      <trkpt lat="42.863582" lon="1.085185">
        <ele>1052.3</ele>
        <time>2013-02-02T15:44:43Z</time>
      </trkpt>
      <trkpt lat="42.863475" lon="1.085105">
        <ele>1051.8</ele>
        <time>2013-02-02T15:44:55Z</time>
      </trkpt>
      <trkpt lat="42.863364" lon="1.085046">
        <ele>1051.8</ele>
        <time>2013-02-02T15:45:07Z</time>
      </trkpt>
      <trkpt lat="42.863256" lon="1.084969">
        <ele>1051.8</ele>
        <time>2013-02-02T15:45:18Z</time>
      </trkpt>
      <trkpt lat="42.863126" lon="1.084913">
        <ele>1051.3</ele>
        <time>2013-02-02T15:45:31Z</time>
      </trkpt>
      <trkpt lat="42.862983" lon="1.084878">
        <ele>1051.3</ele>
        <time>2013-02-02T15:45:44Z</time>
      </trkpt>
      <trkpt lat="42.862884" lon="1.084839">
        <ele>1050.9</ele>
        <time>2013-02-02T15:45:56Z</time>
      </trkpt>
      <trkpt lat="42.862752" lon="1.084802">
        <ele>1050.4</ele>
        <time>2013-02-02T15:46:08Z</time>
      </trkpt>
      <trkpt lat="42.862635" lon="1.084785">
        <ele>1049.9</ele>
        <time>2013-02-02T15:46:22Z</time>
      </trkpt>
      <trkpt lat="42.862490" lon="1.084710">
        <ele>1049.9</ele>
        <time>2013-02-02T15:46:35Z</time>
      </trkpt>
      <trkpt lat="42.862414" lon="1.084583">
        <ele>1049.9</ele>
        <time>2013-02-02T15:46:47Z</time>
      </trkpt>
      <trkpt lat="42.862363" lon="1.084463">
        <ele>1049.9</ele>
        <time>2013-02-02T15:46:59Z</time>
      </trkpt>
      <trkpt lat="42.862298" lon="1.084295">
        <ele>1049.9</ele>
        <time>2013-02-02T15:47:12Z</time>
      </trkpt>
      <trkpt lat="42.862246" lon="1.084133">
        <ele>1050.9</ele>
        <time>2013-02-02T15:47:26Z</time>
      </trkpt>
      <trkpt lat="42.862180" lon="1.083913">
        <ele>1052.8</ele>
        <time>2013-02-02T15:47:42Z</time>
      </trkpt>
      <trkpt lat="42.862133" lon="1.083730">
        <ele>1055.2</ele>
        <time>2013-02-02T15:47:59Z</time>
      </trkpt>
      <trkpt lat="42.862097" lon="1.083555">
        <ele>1057.6</ele>
        <time>2013-02-02T15:48:13Z</time>
      </trkpt>
      <trkpt lat="42.862043" lon="1.083419">
        <ele>1058.6</ele>
        <time>2013-02-02T15:48:29Z</time>
      </trkpt>
      <trkpt lat="42.861983" lon="1.083246">
        <ele>1058.6</ele>
        <time>2013-02-02T15:49:01Z</time>
      </trkpt>
      <trkpt lat="42.861899" lon="1.083128">
        <ele>1059.0</ele>
        <time>2013-02-02T15:49:11Z</time>
      </trkpt>
      <trkpt lat="42.861793" lon="1.083018">
        <ele>1060.0</ele>
        <time>2013-02-02T15:49:26Z</time>
      </trkpt>
      <trkpt lat="42.861787" lon="1.082860">
        <ele>1060.5</ele>
        <time>2013-02-02T15:49:41Z</time>
      </trkpt>
      <trkpt lat="42.861839" lon="1.082674">
        <ele>1062.9</ele>
        <time>2013-02-02T15:49:57Z</time>
      </trkpt>
      <trkpt lat="42.861933" lon="1.082609">
        <ele>1063.4</ele>
        <time>2013-02-02T15:50:13Z</time>
      </trkpt>
      <trkpt lat="42.862053" lon="1.082597">
        <ele>1063.4</ele>
        <time>2013-02-02T15:50:31Z</time>
      </trkpt>
      <trkpt lat="42.862175" lon="1.082545">
        <ele>1064.8</ele>
        <time>2013-02-02T15:50:47Z</time>
      </trkpt>
      <trkpt lat="42.862283" lon="1.082467">
        <ele>1065.8</ele>
        <time>2013-02-02T15:51:03Z</time>
      </trkpt>
      <trkpt lat="42.862401" lon="1.082396">
        <ele>1066.7</ele>
        <time>2013-02-02T15:51:20Z</time>
      </trkpt>
      <trkpt lat="42.862515" lon="1.082308">
        <ele>1067.7</ele>
        <time>2013-02-02T15:51:40Z</time>
      </trkpt>
      <trkpt lat="42.862608" lon="1.082199">
        <ele>1067.7</ele>
        <time>2013-02-02T15:51:57Z</time>
      </trkpt>
      <trkpt lat="42.862704" lon="1.082138">
        <ele>1070.1</ele>
        <time>2013-02-02T15:52:13Z</time>
      </trkpt>
      <trkpt lat="42.862840" lon="1.082058">
        <ele>1072.0</ele>
        <time>2013-02-02T15:52:33Z</time>
      </trkpt>
      <trkpt lat="42.862950" lon="1.081979">
        <ele>1073.0</ele>
        <time>2013-02-02T15:52:49Z</time>
      </trkpt>
      <trkpt lat="42.863078" lon="1.081893">
        <ele>1075.4</ele>
        <time>2013-02-02T15:53:08Z</time>
      </trkpt>
      <trkpt lat="42.863303" lon="1.081821">
        <ele>1076.3</ele>
        <time>2013-02-02T15:53:41Z</time>
      </trkpt>
      <trkpt lat="42.863415" lon="1.081797">
        <ele>1077.8</ele>
        <time>2013-02-02T15:54:00Z</time>
      </trkpt>
      <trkpt lat="42.863573" lon="1.081721">
        <ele>1080.2</ele>
        <time>2013-02-02T15:54:23Z</time>
      </trkpt>
      <trkpt lat="42.863673" lon="1.081643">
        <ele>1080.7</ele>
        <time>2013-02-02T15:54:37Z</time>
      </trkpt>
      <trkpt lat="42.863757" lon="1.081564">
        <ele>1081.6</ele>
        <time>2013-02-02T15:54:52Z</time>
      </trkpt>
      <trkpt lat="42.863850" lon="1.081473">
        <ele>1083.1</ele>
        <time>2013-02-02T15:55:09Z</time>
      </trkpt>
      <trkpt lat="42.863950" lon="1.081399">
        <ele>1084.0</ele>
        <time>2013-02-02T15:55:23Z</time>
      </trkpt>
      <trkpt lat="42.864052" lon="1.081306">
        <ele>1085.0</ele>
        <time>2013-02-02T15:55:39Z</time>
      </trkpt>
      <trkpt lat="42.864143" lon="1.081214">
        <ele>1085.9</ele>
        <time>2013-02-02T15:55:54Z</time>
      </trkpt>
      <trkpt lat="42.864219" lon="1.081121">
        <ele>1087.4</ele>
        <time>2013-02-02T15:56:09Z</time>
      </trkpt>
      <trkpt lat="42.864333" lon="1.081056">
        <ele>1088.3</ele>
        <time>2013-02-02T15:56:24Z</time>
      </trkpt>
      <trkpt lat="42.864420" lon="1.080940">
        <ele>1090.3</ele>
        <time>2013-02-02T15:56:38Z</time>
      </trkpt>
      <trkpt lat="42.864499" lon="1.080866">
        <ele>1091.7</ele>
        <time>2013-02-02T15:57:15Z</time>
      </trkpt>
      <trkpt lat="42.864585" lon="1.080761">
        <ele>1094.6</ele>
        <time>2013-02-02T15:57:28Z</time>
      </trkpt>
      <trkpt lat="42.864688" lon="1.080683">
        <ele>1092.2</ele>
        <time>2013-02-02T15:57:42Z</time>
      </trkpt>
      <trkpt lat="42.864800" lon="1.080624">
        <ele>1095.6</ele>
        <time>2013-02-02T15:57:56Z</time>
      </trkpt>
      <trkpt lat="42.864885" lon="1.080531">
        <ele>1096.5</ele>
        <time>2013-02-02T15:58:10Z</time>
      </trkpt>
      <trkpt lat="42.864976" lon="1.080408">
        <ele>1098.0</ele>
        <time>2013-02-02T15:58:22Z</time>
      </trkpt>
      <trkpt lat="42.865077" lon="1.080339">
        <ele>1098.0</ele>
        <time>2013-02-02T15:58:36Z</time>
      </trkpt>
      <trkpt lat="42.865163" lon="1.080339">
        <ele>1100.4</ele>
        <time>2013-02-02T15:58:47Z</time>
      </trkpt>
      <trkpt lat="42.865303" lon="1.080350">
        <ele>1102.3</ele>
        <time>2013-02-02T15:59:01Z</time>
      </trkpt>
      <trkpt lat="42.865410" lon="1.080327">
        <ele>1103.2</ele>
        <time>2013-02-02T15:59:15Z</time>
      </trkpt>
      <trkpt lat="42.865510" lon="1.080285">
        <ele>1104.2</ele>
        <time>2013-02-02T15:59:27Z</time>
      </trkpt>
      <trkpt lat="42.865610" lon="1.080206">
        <ele>1105.7</ele>
        <time>2013-02-02T15:59:38Z</time>
      </trkpt>
      <trkpt lat="42.865696" lon="1.080134">
        <ele>1108.5</ele>
        <time>2013-02-02T15:59:51Z</time>
      </trkpt>
      <trkpt lat="42.865785" lon="1.080050">
        <ele>1108.5</ele>
        <time>2013-02-02T16:00:05Z</time>
      </trkpt>
      <trkpt lat="42.865871" lon="1.079953">
        <ele>1108.5</ele>
        <time>2013-02-02T16:00:19Z</time>
      </trkpt>
      <trkpt lat="42.865944" lon="1.079850">
        <ele>1111.4</ele>
        <time>2013-02-02T16:00:33Z</time>
      </trkpt>
      <trkpt lat="42.866016" lon="1.079646">
        <ele>1111.4</ele>
        <time>2013-02-02T16:00:48Z</time>
      </trkpt>
      <trkpt lat="42.866036" lon="1.079498">
        <ele>1111.4</ele>
        <time>2013-02-02T16:01:02Z</time>
      </trkpt>
      <trkpt lat="42.866052" lon="1.079337">
        <ele>1113.8</ele>
        <time>2013-02-02T16:01:18Z</time>
      </trkpt>
      <trkpt lat="42.866060" lon="1.079187">
        <ele>1115.3</ele>
        <time>2013-02-02T16:01:33Z</time>
      </trkpt>
      <trkpt lat="42.866022" lon="1.079052">
        <ele>1116.7</ele>
        <time>2013-02-02T16:01:47Z</time>
      </trkpt>
      <trkpt lat="42.865963" lon="1.078914">
        <ele>1117.7</ele>
        <time>2013-02-02T16:02:02Z</time>
      </trkpt>
      <trkpt lat="42.865915" lon="1.078772">
        <ele>1119.1</ele>
        <time>2013-02-02T16:02:16Z</time>
      </trkpt>
      <trkpt lat="42.865872" lon="1.078630">
        <ele>1122.5</ele>
        <time>2013-02-02T16:02:31Z</time>
      </trkpt>
      <trkpt lat="42.865817" lon="1.078490">
        <ele>1122.0</ele>
        <time>2013-02-02T16:02:45Z</time>
      </trkpt>
      <trkpt lat="42.865761" lon="1.078365">
        <ele>1121.0</ele>
        <time>2013-02-02T16:02:58Z</time>
      </trkpt>
      <trkpt lat="42.865703" lon="1.078230">
        <ele>1125.8</ele>
        <time>2013-02-02T16:03:12Z</time>
      </trkpt>
      <trkpt lat="42.865630" lon="1.078079">
        <ele>1127.8</ele>
        <time>2013-02-02T16:03:29Z</time>
      </trkpt>
      <trkpt lat="42.865579" lon="1.077904">
        <ele>1128.7</ele>
        <time>2013-02-02T16:03:45Z</time>
      </trkpt>
      <trkpt lat="42.865584" lon="1.077899">
        <ele>1130.7</ele>
        <time>2013-02-02T16:08:03Z</time>
      </trkpt>
      <trkpt lat="42.865474" lon="1.077692">
        <ele>1135.4</ele>
        <time>2013-02-02T16:09:01Z</time>
      </trkpt>
      <trkpt lat="42.865379" lon="1.077525">
        <ele>1135.4</ele>
        <time>2013-02-02T16:09:20Z</time>
      </trkpt>
      <trkpt lat="42.865297" lon="1.077363">
        <ele>1135.9</ele>
        <time>2013-02-02T16:09:36Z</time>
      </trkpt>
      <trkpt lat="42.865255" lon="1.077184">
        <ele>1137.9</ele>
        <time>2013-02-02T16:09:53Z</time>
      </trkpt>
      <trkpt lat="42.865171" lon="1.077045">
        <ele>1138.8</ele>
        <time>2013-02-02T16:10:09Z</time>
      </trkpt>
      <trkpt lat="42.865040" lon="1.076917">
        <ele>1141.7</ele>
        <time>2013-02-02T16:10:26Z</time>
      </trkpt>
      <trkpt lat="42.864953" lon="1.076826">
        <ele>1144.1</ele>
        <time>2013-02-02T16:10:38Z</time>
      </trkpt>
      <trkpt lat="42.864952" lon="1.076627">
        <ele>1144.1</ele>
        <time>2013-02-02T16:10:53Z</time>
      </trkpt>
      <trkpt lat="42.864975" lon="1.076475">
        <ele>1146.5</ele>
        <time>2013-02-02T16:11:07Z</time>
      </trkpt>
      <trkpt lat="42.865014" lon="1.076312">
        <ele>1147.0</ele>
        <time>2013-02-02T16:11:22Z</time>
      </trkpt>
      <trkpt lat="42.865053" lon="1.076144">
        <ele>1147.0</ele>
        <time>2013-02-02T16:11:36Z</time>
      </trkpt>
      <trkpt lat="42.865088" lon="1.076001">
        <ele>1147.5</ele>
        <time>2013-02-02T16:11:50Z</time>
      </trkpt>
      <trkpt lat="42.865096" lon="1.075845">
        <ele>1150.8</ele>
        <time>2013-02-02T16:12:07Z</time>
      </trkpt>
      <trkpt lat="42.864991" lon="1.075765">
        <ele>1152.8</ele>
        <time>2013-02-02T16:12:30Z</time>
      </trkpt>
      <trkpt lat="42.864940" lon="1.075546">
        <ele>1156.6</ele>
        <time>2013-02-02T16:13:33Z</time>
      </trkpt>
      <trkpt lat="42.864894" lon="1.075286">
        <ele>1156.6</ele>
        <time>2013-02-02T16:13:57Z</time>
      </trkpt>
      <trkpt lat="42.864787" lon="1.075144">
        <ele>1157.6</ele>
        <time>2013-02-02T16:14:16Z</time>
      </trkpt>
      <trkpt lat="42.864609" lon="1.074945">
        <ele>1163.3</ele>
        <time>2013-02-02T16:14:46Z</time>
      </trkpt>
      <trkpt lat="42.864445" lon="1.074795">
        <ele>1164.3</ele>
        <time>2013-02-02T16:15:12Z</time>
      </trkpt>
      <trkpt lat="42.864315" lon="1.074676">
        <ele>1165.3</ele>
        <time>2013-02-02T16:15:34Z</time>
      </trkpt>
      <trkpt lat="42.864165" lon="1.074578">
        <ele>1168.1</ele>
        <time>2013-02-02T16:15:57Z</time>
      </trkpt>
      <trkpt lat="42.864033" lon="1.074516">
        <ele>1169.1</ele>
        <time>2013-02-02T16:16:14Z</time>
      </trkpt>
      <trkpt lat="42.863901" lon="1.074435">
        <ele>1169.1</ele>
        <time>2013-02-02T16:16:31Z</time>
      </trkpt>
      <trkpt lat="42.863830" lon="1.074248">
        <ele>1170.1</ele>
        <time>2013-02-02T16:16:53Z</time>
      </trkpt>
      <trkpt lat="42.863847" lon="1.074058">
        <ele>1171.0</ele>
        <time>2013-02-02T16:17:11Z</time>
      </trkpt>
      <trkpt lat="42.863887" lon="1.073904">
        <ele>1174.4</ele>
        <time>2013-02-02T16:17:28Z</time>
      </trkpt>
      <trkpt lat="42.863960" lon="1.073742">
        <ele>1172.9</ele>
        <time>2013-02-02T16:17:46Z</time>
      </trkpt>
      <trkpt lat="42.863983" lon="1.073529">
        <ele>1174.4</ele>
        <time>2013-02-02T16:18:04Z</time>
      </trkpt>
      <trkpt lat="42.864047" lon="1.073380">
        <ele>1175.8</ele>
        <time>2013-02-02T16:18:22Z</time>
      </trkpt>
      <trkpt lat="42.864081" lon="1.073208">
        <ele>1180.2</ele>
        <time>2013-02-02T16:18:43Z</time>
      </trkpt>
      <trkpt lat="42.864151" lon="1.073024">
        <ele>1181.6</ele>
        <time>2013-02-02T16:19:02Z</time>
      </trkpt>
      <trkpt lat="42.864255" lon="1.072897">
        <ele>1180.6</ele>
        <time>2013-02-02T16:19:22Z</time>
      </trkpt>
      <trkpt lat="42.864330" lon="1.072828">
        <ele>1184.0</ele>
        <time>2013-02-02T16:19:39Z</time>
      </trkpt>
      <trkpt lat="42.864373" lon="1.072664">
        <ele>1185.4</ele>
        <time>2013-02-02T16:19:57Z</time>
      </trkpt>
      <trkpt lat="42.864365" lon="1.072494">
        <ele>1185.9</ele>
        <time>2013-02-02T16:20:16Z</time>
      </trkpt>
      <trkpt lat="42.864378" lon="1.072331">
        <ele>1186.9</ele>
        <time>2013-02-02T16:20:34Z</time>
      </trkpt>
      <trkpt lat="42.864367" lon="1.072151">
        <ele>1188.8</ele>
        <time>2013-02-02T16:20:53Z</time>
      </trkpt>
      <trkpt lat="42.864559" lon="1.072089">
        <ele>1190.7</ele>
        <time>2013-02-02T16:21:14Z</time>
      </trkpt>
      <trkpt lat="42.864710" lon="1.072135">
        <ele>1192.2</ele>
        <time>2013-02-02T16:21:30Z</time>
      </trkpt>
      <trkpt lat="42.864839" lon="1.072162">
        <ele>1191.7</ele>
        <time>2013-02-02T16:21:47Z</time>
      </trkpt>
      <trkpt lat="42.864938" lon="1.072169">
        <ele>1193.6</ele>
        <time>2013-02-02T16:22:04Z</time>
      </trkpt>
      <trkpt lat="42.865104" lon="1.072138">
        <ele>1196.0</ele>
        <time>2013-02-02T16:22:26Z</time>
      </trkpt>
      <trkpt lat="42.865310" lon="1.072063">
        <ele>1198.9</ele>
        <time>2013-02-02T16:22:55Z</time>
      </trkpt>
      <trkpt lat="42.865491" lon="1.072042">
        <ele>1199.9</ele>
        <time>2013-02-02T16:23:21Z</time>
      </trkpt>
      <trkpt lat="42.865678" lon="1.072005">
        <ele>1201.8</ele>
        <time>2013-02-02T16:23:45Z</time>
      </trkpt>
      <trkpt lat="42.865888" lon="1.071895">
        <ele>1203.2</ele>
        <time>2013-02-02T16:24:17Z</time>
      </trkpt>
      <trkpt lat="42.866047" lon="1.071846">
        <ele>1204.2</ele>
        <time>2013-02-02T16:24:42Z</time>
      </trkpt>
      <trkpt lat="42.866218" lon="1.071888">
        <ele>1205.6</ele>
        <time>2013-02-02T16:25:03Z</time>
      </trkpt>
      <trkpt lat="42.866365" lon="1.071903">
        <ele>1207.6</ele>
        <time>2013-02-02T16:25:22Z</time>
      </trkpt>
      <trkpt lat="42.866482" lon="1.071848">
        <ele>1208.0</ele>
        <time>2013-02-02T16:25:39Z</time>
      </trkpt>
      <trkpt lat="42.866553" lon="1.071768">
        <ele>1210.0</ele>
        <time>2013-02-02T16:26:04Z</time>
        <name>Quitter la piste</name>
      </trkpt>
      <trkpt lat="42.866510" lon="1.071612">
        <ele>1212.8</ele>
        <time>2013-02-02T16:26:30Z</time>
      </trkpt>
      <trkpt lat="42.866418" lon="1.071558">
        <ele>1210.4</ele>
        <time>2013-02-02T16:26:44Z</time>
      </trkpt>
      <trkpt lat="42.866323" lon="1.071524">
        <ele>1213.3</ele>
        <time>2013-02-02T16:26:58Z</time>
      </trkpt>
      <trkpt lat="42.866229" lon="1.071481">
        <ele>1213.3</ele>
        <time>2013-02-02T16:27:16Z</time>
      </trkpt>
      <trkpt lat="42.866149" lon="1.071479">
        <ele>1219.1</ele>
        <time>2013-02-02T16:27:56Z</time>
      </trkpt>
      <trkpt lat="42.866032" lon="1.071446">
        <ele>1222.0</ele>
        <time>2013-02-02T16:28:17Z</time>
      </trkpt>
      <trkpt lat="42.865893" lon="1.071427">
        <ele>1226.3</ele>
        <time>2013-02-02T16:28:45Z</time>
      </trkpt>
      <trkpt lat="42.865757" lon="1.071341">
        <ele>1230.1</ele>
        <time>2013-02-02T16:29:08Z</time>
      </trkpt>
      <trkpt lat="42.865627" lon="1.071294">
        <ele>1234.5</ele>
        <time>2013-02-02T16:29:32Z</time>
      </trkpt>
      <trkpt lat="42.865507" lon="1.071250">
        <ele>1239.8</ele>
        <time>2013-02-02T16:30:05Z</time>
      </trkpt>
      <trkpt lat="42.865386" lon="1.071108">
        <ele>1245.0</ele>
        <time>2013-02-02T16:30:33Z</time>
      </trkpt>
      <trkpt lat="42.865260" lon="1.071091">
        <ele>1248.4</ele>
        <time>2013-02-02T16:30:55Z</time>
      </trkpt>
      <trkpt lat="42.865218" lon="1.071063">
        <ele>1252.7</ele>
        <time>2013-02-02T16:32:29Z</time>
      </trkpt>
      <trkpt lat="42.865152" lon="1.070956">
        <ele>1253.7</ele>
        <time>2013-02-02T16:36:06Z</time>
      </trkpt>
      <trkpt lat="42.865074" lon="1.070855">
        <ele>1257.5</ele>
        <time>2013-02-02T16:36:27Z</time>
      </trkpt>
      <trkpt lat="42.864991" lon="1.070808">
        <ele>1261.9</ele>
        <time>2013-02-02T16:36:46Z</time>
      </trkpt>
      <trkpt lat="42.864923" lon="1.070710">
        <ele>1264.8</ele>
        <time>2013-02-02T16:37:09Z</time>
      </trkpt>
      <trkpt lat="42.864832" lon="1.070624">
        <ele>1269.1</ele>
        <time>2013-02-02T16:37:28Z</time>
      </trkpt>
      <trkpt lat="42.864780" lon="1.070524">
        <ele>1272.9</ele>
        <time>2013-02-02T16:37:50Z</time>
      </trkpt>
      <trkpt lat="42.864698" lon="1.070440">
        <ele>1275.8</ele>
        <time>2013-02-02T16:38:15Z</time>
      </trkpt>
      <trkpt lat="42.864628" lon="1.070309">
        <ele>1276.8</ele>
        <time>2013-02-02T16:38:41Z</time>
      </trkpt>
      <trkpt lat="42.864554" lon="1.070258">
        <ele>1281.6</ele>
        <time>2013-02-02T16:39:02Z</time>
      </trkpt>
      <trkpt lat="42.864482" lon="1.070162">
        <ele>1284.5</ele>
        <time>2013-02-02T16:39:25Z</time>
      </trkpt>
      <trkpt lat="42.864411" lon="1.070124">
        <ele>1287.3</ele>
        <time>2013-02-02T16:39:44Z</time>
      </trkpt>
      <trkpt lat="42.864334" lon="1.070002">
        <ele>1294.1</ele>
        <time>2013-02-02T16:40:14Z</time>
      </trkpt>
      <trkpt lat="42.864244" lon="1.069942">
        <ele>1293.1</ele>
        <time>2013-02-02T16:40:39Z</time>
      </trkpt>
      <trkpt lat="42.864153" lon="1.069877">
        <ele>1298.4</ele>
        <time>2013-02-02T16:41:08Z</time>
      </trkpt>
      <trkpt lat="42.864059" lon="1.069866">
        <ele>1303.7</ele>
        <time>2013-02-02T16:41:33Z</time>
      </trkpt>
      <trkpt lat="42.863900" lon="1.069771">
        <ele>1311.4</ele>
        <time>2013-02-02T16:42:21Z</time>
      </trkpt>
      <trkpt lat="42.863803" lon="1.069627">
        <ele>1315.7</ele>
        <time>2013-02-02T16:42:52Z</time>
      </trkpt>
      <trkpt lat="42.863754" lon="1.069513">
        <ele>1319.6</ele>
        <time>2013-02-02T16:43:15Z</time>
      </trkpt>
      <trkpt lat="42.863668" lon="1.069508">
        <ele>1322.9</ele>
        <time>2013-02-02T16:43:36Z</time>
      </trkpt>
      <trkpt lat="42.863577" lon="1.069535">
        <ele>1325.3</ele>
        <time>2013-02-02T16:43:54Z</time>
      </trkpt>
      <trkpt lat="42.863501" lon="1.069423">
        <ele>1327.2</ele>
        <time>2013-02-02T16:44:14Z</time>
      </trkpt>
      <trkpt lat="42.863408" lon="1.069355">
        <ele>1329.6</ele>
        <time>2013-02-02T16:44:32Z</time>
      </trkpt>
      <trkpt lat="42.863311" lon="1.069359">
        <ele>1337.3</ele>
        <time>2013-02-02T16:44:53Z</time>
      </trkpt>
      <trkpt lat="42.863216" lon="1.069357">
        <ele>1336.8</ele>
        <time>2013-02-02T16:45:13Z</time>
      </trkpt>
      <trkpt lat="42.863115" lon="1.069263">
        <ele>1341.2</ele>
        <time>2013-02-02T16:45:36Z</time>
      </trkpt>
      <trkpt lat="42.863023" lon="1.069200">
        <ele>1343.1</ele>
        <time>2013-02-02T16:45:56Z</time>
      </trkpt>
      <trkpt lat="42.862922" lon="1.069161">
        <ele>1345.0</ele>
        <time>2013-02-02T16:46:15Z</time>
      </trkpt>
      <trkpt lat="42.862817" lon="1.069052">
        <ele>1350.3</ele>
        <time>2013-02-02T16:46:40Z</time>
      </trkpt>
      <trkpt lat="42.862697" lon="1.069019">
        <ele>1353.2</ele>
        <time>2013-02-02T16:47:00Z</time>
      </trkpt>
      <trkpt lat="42.862591" lon="1.068988">
        <ele>1353.7</ele>
        <time>2013-02-02T16:47:20Z</time>
      </trkpt>
      <trkpt lat="42.862517" lon="1.068851">
        <ele>1357.0</ele>
        <time>2013-02-02T16:47:45Z</time>
      </trkpt>
      <trkpt lat="42.862352" lon="1.068798">
        <ele>1362.8</ele>
        <time>2013-02-02T16:48:34Z</time>
      </trkpt>
      <trkpt lat="42.862238" lon="1.068782">
        <ele>1369.1</ele>
        <time>2013-02-02T16:49:03Z</time>
      </trkpt>
      <trkpt lat="42.862151" lon="1.068745">
        <ele>1372.4</ele>
        <time>2013-02-02T16:49:22Z</time>
      </trkpt>
      <trkpt lat="42.862054" lon="1.068690">
        <ele>1376.8</ele>
        <time>2013-02-02T16:49:46Z</time>
      </trkpt>
      <trkpt lat="42.861960" lon="1.068580">
        <ele>1381.1</ele>
        <time>2013-02-02T16:50:08Z</time>
      </trkpt>
      <trkpt lat="42.861868" lon="1.068535">
        <ele>1379.2</ele>
        <time>2013-02-02T16:53:06Z</time>
      </trkpt>
      <trkpt lat="42.861780" lon="1.068457">
        <ele>1381.6</ele>
        <time>2013-02-02T16:53:59Z</time>
      </trkpt>
      <trkpt lat="42.861698" lon="1.068360">
        <ele>1383.5</ele>
        <time>2013-02-02T16:54:11Z</time>
      </trkpt>
      <trkpt lat="42.861645" lon="1.068278">
        <ele>1387.3</ele>
        <time>2013-02-02T16:54:35Z</time>
        <name>Piste forestiere</name>
      </trkpt>
      <trkpt lat="42.861658" lon="1.068102">
        <ele>1392.1</ele>
        <time>2013-02-02T16:55:04Z</time>
      </trkpt>
      <trkpt lat="42.861626" lon="1.067969">
        <ele>1398.9</ele>
        <time>2013-02-02T16:56:01Z</time>
      </trkpt>
      <trkpt lat="42.861660" lon="1.067819">
        <ele>1402.2</ele>
        <time>2013-02-02T16:57:06Z</time>
      </trkpt>
      <trkpt lat="42.861699" lon="1.067685">
        <ele>1401.7</ele>
        <time>2013-02-02T16:57:56Z</time>
      </trkpt>
      <trkpt lat="42.861744" lon="1.067553">
        <ele>1404.1</ele>
        <time>2013-02-02T16:58:11Z</time>
      </trkpt>
      <trkpt lat="42.861739" lon="1.067388">
        <ele>1407.0</ele>
        <time>2013-02-02T16:58:32Z</time>
      </trkpt>
      <trkpt lat="42.861816" lon="1.067051">
        <ele>1400.8</ele>
        <time>2013-02-03T09:54:06Z</time>
      </trkpt>
      <trkpt lat="42.861850" lon="1.066889">
        <ele>1401.7</ele>
        <time>2013-02-03T09:54:19Z</time>
      </trkpt>
      <trkpt lat="42.861910" lon="1.066777">
        <ele>1401.7</ele>
        <time>2013-02-03T09:54:31Z</time>
      </trkpt>
      <trkpt lat="42.861960" lon="1.066648">
        <ele>1402.7</ele>
        <time>2013-02-03T09:54:46Z</time>
      </trkpt>
      <trkpt lat="42.862030" lon="1.066524">
        <ele>1403.7</ele>
        <time>2013-02-03T09:55:01Z</time>
      </trkpt>
      <trkpt lat="42.862124" lon="1.066433">
        <ele>1403.7</ele>
        <time>2013-02-03T09:55:17Z</time>
      </trkpt>
      <trkpt lat="42.862204" lon="1.066336">
        <ele>1403.7</ele>
        <time>2013-02-03T09:55:31Z</time>
      </trkpt>
      <trkpt lat="42.862273" lon="1.066236">
        <ele>1404.6</ele>
        <time>2013-02-03T09:55:44Z</time>
      </trkpt>
      <trkpt lat="42.862330" lon="1.066133">
        <ele>1405.1</ele>
        <time>2013-02-03T09:55:57Z</time>
      </trkpt>
      <trkpt lat="42.862376" lon="1.065983">
        <ele>1405.1</ele>
        <time>2013-02-03T09:56:11Z</time>
      </trkpt>
      <trkpt lat="42.862432" lon="1.065867">
        <ele>1406.1</ele>
        <time>2013-02-03T09:56:26Z</time>
      </trkpt>
      <trkpt lat="42.862466" lon="1.065721">
        <ele>1406.1</ele>
        <time>2013-02-03T09:56:42Z</time>
      </trkpt>
      <trkpt lat="42.862512" lon="1.065594">
        <ele>1406.6</ele>
        <time>2013-02-03T09:56:56Z</time>
      </trkpt>
      <trkpt lat="42.862577" lon="1.065472">
        <ele>1407.5</ele>
        <time>2013-02-03T09:57:11Z</time>
      </trkpt>
      <trkpt lat="42.862620" lon="1.065328">
        <ele>1407.5</ele>
        <time>2013-02-03T09:57:24Z</time>
      </trkpt>
      <trkpt lat="42.862672" lon="1.065216">
        <ele>1408.0</ele>
        <time>2013-02-03T09:57:39Z</time>
      </trkpt>
      <trkpt lat="42.862719" lon="1.065083">
        <ele>1408.5</ele>
        <time>2013-02-03T09:57:53Z</time>
      </trkpt>
      <trkpt lat="42.862737" lon="1.064917">
        <ele>1409.4</ele>
        <time>2013-02-03T09:58:09Z</time>
      </trkpt>
      <trkpt lat="42.862757" lon="1.064761">
        <ele>1409.9</ele>
        <time>2013-02-03T09:58:25Z</time>
      </trkpt>
      <trkpt lat="42.862780" lon="1.064619">
        <ele>1410.4</ele>
        <time>2013-02-03T09:58:40Z</time>
      </trkpt>
      <trkpt lat="42.862806" lon="1.064463">
        <ele>1410.9</ele>
        <time>2013-02-03T09:58:55Z</time>
      </trkpt>
      <trkpt lat="42.862849" lon="1.064311">
        <ele>1410.9</ele>
        <time>2013-02-03T09:59:10Z</time>
      </trkpt>
      <trkpt lat="42.862898" lon="1.064194">
        <ele>1411.3</ele>
        <time>2013-02-03T09:59:25Z</time>
      </trkpt>
      <trkpt lat="42.862964" lon="1.064035">
        <ele>1412.3</ele>
        <time>2013-02-03T09:59:40Z</time>
      </trkpt>
      <trkpt lat="42.863006" lon="1.063860">
        <ele>1412.3</ele>
        <time>2013-02-03T09:59:57Z</time>
      </trkpt>
      <trkpt lat="42.863087" lon="1.063746">
        <ele>1412.8</ele>
        <time>2013-02-03T10:00:15Z</time>
      </trkpt>
      <trkpt lat="42.863176" lon="1.063647">
        <ele>1414.2</ele>
        <time>2013-02-03T10:00:34Z</time>
      </trkpt>
      <trkpt lat="42.863263" lon="1.063545">
        <ele>1414.7</ele>
        <time>2013-02-03T10:00:52Z</time>
      </trkpt>
      <trkpt lat="42.863331" lon="1.063445">
        <ele>1415.2</ele>
        <time>2013-02-03T10:01:06Z</time>
      </trkpt>
      <trkpt lat="42.863394" lon="1.063327">
        <ele>1416.6</ele>
        <time>2013-02-03T10:01:23Z</time>
      </trkpt>
      <trkpt lat="42.863490" lon="1.063235">
        <ele>1417.6</ele>
        <time>2013-02-03T10:01:40Z</time>
      </trkpt>
      <trkpt lat="42.863582" lon="1.063148">
        <ele>1418.6</ele>
        <time>2013-02-03T10:01:56Z</time>
      </trkpt>
      <trkpt lat="42.863665" lon="1.063060">
        <ele>1419.0</ele>
        <time>2013-02-03T10:02:13Z</time>
      </trkpt>
      <trkpt lat="42.863740" lon="1.062948">
        <ele>1420.0</ele>
        <time>2013-02-03T10:02:29Z</time>
      </trkpt>
      <trkpt lat="42.863837" lon="1.062878">
        <ele>1420.0</ele>
        <time>2013-02-03T10:02:48Z</time>
      </trkpt>
      <trkpt lat="42.863966" lon="1.062832">
        <ele>1420.5</ele>
        <time>2013-02-03T10:03:04Z</time>
      </trkpt>
      <trkpt lat="42.864077" lon="1.062816">
        <ele>1421.0</ele>
        <time>2013-02-03T10:03:21Z</time>
      </trkpt>
      <trkpt lat="42.864192" lon="1.062783">
        <ele>1421.4</ele>
        <time>2013-02-03T10:03:42Z</time>
      </trkpt>
      <trkpt lat="42.864321" lon="1.062786">
        <ele>1421.4</ele>
        <time>2013-02-03T10:04:00Z</time>
      </trkpt>
      <trkpt lat="42.864431" lon="1.062796">
        <ele>1421.9</ele>
        <time>2013-02-03T10:04:15Z</time>
      </trkpt>
      <trkpt lat="42.864554" lon="1.062798">
        <ele>1422.9</ele>
        <time>2013-02-03T10:04:34Z</time>
      </trkpt>
      <trkpt lat="42.864688" lon="1.062781">
        <ele>1423.4</ele>
        <time>2013-02-03T10:04:52Z</time>
      </trkpt>
      <trkpt lat="42.864795" lon="1.062787">
        <ele>1423.8</ele>
        <time>2013-02-03T10:05:08Z</time>
      </trkpt>
      <trkpt lat="42.864901" lon="1.062770">
        <ele>1424.3</ele>
        <time>2013-02-03T10:05:22Z</time>
      </trkpt>
      <trkpt lat="42.864997" lon="1.062753">
        <ele>1425.3</ele>
        <time>2013-02-03T10:05:38Z</time>
      </trkpt>
      <trkpt lat="42.865111" lon="1.062712">
        <ele>1425.3</ele>
        <time>2013-02-03T10:05:52Z</time>
      </trkpt>
      <trkpt lat="42.865214" lon="1.062678">
        <ele>1426.7</ele>
        <time>2013-02-03T10:06:06Z</time>
      </trkpt>
      <trkpt lat="42.865301" lon="1.062603">
        <ele>1426.2</ele>
        <time>2013-02-03T10:06:22Z</time>
      </trkpt>
      <trkpt lat="42.865366" lon="1.062499">
        <ele>1427.7</ele>
        <time>2013-02-03T10:06:37Z</time>
      </trkpt>
      <trkpt lat="42.865393" lon="1.062360">
        <ele>1427.7</ele>
        <time>2013-02-03T10:06:55Z</time>
      </trkpt>
      <trkpt lat="42.865399" lon="1.062184">
        <ele>1428.7</ele>
        <time>2013-02-03T10:07:15Z</time>
      </trkpt>
      <trkpt lat="42.865378" lon="1.062123">
        <ele>1428.7</ele>
        <time>2013-02-03T10:09:07Z</time>
      </trkpt>
      <trkpt lat="42.865316" lon="1.061954">
        <ele>1429.6</ele>
        <time>2013-02-03T10:13:50Z</time>
      </trkpt>
      <trkpt lat="42.865225" lon="1.061808">
        <ele>1430.1</ele>
        <time>2013-02-03T10:14:08Z</time>
      </trkpt>
      <trkpt lat="42.865141" lon="1.061700">
        <ele>1430.1</ele>
        <time>2013-02-03T10:14:26Z</time>
      </trkpt>
      <trkpt lat="42.865043" lon="1.061574">
        <ele>1431.5</ele>
        <time>2013-02-03T10:14:45Z</time>
      </trkpt>
      <trkpt lat="42.864961" lon="1.061427">
        <ele>1432.5</ele>
        <time>2013-02-03T10:15:02Z</time>
      </trkpt>
      <trkpt lat="42.864862" lon="1.061311">
        <ele>1432.5</ele>
        <time>2013-02-03T10:15:21Z</time>
      </trkpt>
      <trkpt lat="42.864766" lon="1.061204">
        <ele>1433.5</ele>
        <time>2013-02-03T10:15:47Z</time>
      </trkpt>
      <trkpt lat="42.864651" lon="1.061083">
        <ele>1434.4</ele>
        <time>2013-02-03T10:16:08Z</time>
      </trkpt>
      <trkpt lat="42.864555" lon="1.060957">
        <ele>1435.4</ele>
        <time>2013-02-03T10:16:32Z</time>
      </trkpt>
      <trkpt lat="42.864444" lon="1.060712">
        <ele>1436.3</ele>
        <time>2013-02-03T10:17:01Z</time>
      </trkpt>
      <trkpt lat="42.864385" lon="1.060529">
        <ele>1437.3</ele>
        <time>2013-02-03T10:17:29Z</time>
      </trkpt>
      <trkpt lat="42.864359" lon="1.060368">
        <ele>1437.8</ele>
        <time>2013-02-03T10:17:48Z</time>
      </trkpt>
      <trkpt lat="42.864329" lon="1.060183">
        <ele>1437.3</ele>
        <time>2013-02-03T10:18:08Z</time>
      </trkpt>
      <trkpt lat="42.864276" lon="1.059983">
        <ele>1437.8</ele>
        <time>2013-02-03T10:18:29Z</time>
      </trkpt>
      <trkpt lat="42.864186" lon="1.059815">
        <ele>1438.8</ele>
        <time>2013-02-03T10:18:50Z</time>
      </trkpt>
      <trkpt lat="42.864089" lon="1.059738">
        <ele>1439.2</ele>
        <time>2013-02-03T10:19:44Z</time>
      </trkpt>
      <trkpt lat="42.864005" lon="1.059661">
        <ele>1439.2</ele>
        <time>2013-02-03T10:19:55Z</time>
      </trkpt>
      <trkpt lat="42.863899" lon="1.059558">
        <ele>1438.3</ele>
        <time>2013-02-03T10:20:07Z</time>
      </trkpt>
      <trkpt lat="42.863807" lon="1.059444">
        <ele>1437.3</ele>
        <time>2013-02-03T10:20:18Z</time>
      </trkpt>
      <trkpt lat="42.863726" lon="1.059351">
        <ele>1437.3</ele>
        <time>2013-02-03T10:20:30Z</time>
      </trkpt>
      <trkpt lat="42.863652" lon="1.059242">
        <ele>1436.8</ele>
        <time>2013-02-03T10:20:42Z</time>
      </trkpt>
      <trkpt lat="42.863547" lon="1.059125">
        <ele>1435.9</ele>
        <time>2013-02-03T10:20:57Z</time>
      </trkpt>
      <trkpt lat="42.863484" lon="1.059050">
        <ele>1435.4</ele>
        <time>2013-02-03T10:21:10Z</time>
      </trkpt>
      <trkpt lat="42.863408" lon="1.058919">
        <ele>1434.9</ele>
        <time>2013-02-03T10:21:25Z</time>
      </trkpt>
      <trkpt lat="42.863313" lon="1.058797">
        <ele>1434.4</ele>
        <time>2013-02-03T10:21:42Z</time>
      </trkpt>
      <trkpt lat="42.863226" lon="1.058675">
        <ele>1434.4</ele>
        <time>2013-02-03T10:21:59Z</time>
      </trkpt>
      <trkpt lat="42.863153" lon="1.058636">
        <ele>1433.9</ele>
        <time>2013-02-03T10:22:12Z</time>
      </trkpt>
      <trkpt lat="42.863074" lon="1.058550">
        <ele>1433.9</ele>
        <time>2013-02-03T10:22:29Z</time>
      </trkpt>
      <trkpt lat="42.863001" lon="1.058430">
        <ele>1434.4</ele>
        <time>2013-02-03T10:22:45Z</time>
      </trkpt>
      <trkpt lat="42.862924" lon="1.058302">
        <ele>1433.5</ele>
        <time>2013-02-03T10:23:00Z</time>
      </trkpt>
      <trkpt lat="42.862847" lon="1.058176">
        <ele>1433.9</ele>
        <time>2013-02-03T10:23:16Z</time>
      </trkpt>
      <trkpt lat="42.862795" lon="1.058098">
        <ele>1433.9</ele>
        <time>2013-02-03T10:23:31Z</time>
      </trkpt>
      <trkpt lat="42.862695" lon="1.057998">
        <ele>1433.5</ele>
        <time>2013-02-03T10:23:48Z</time>
      </trkpt>
      <trkpt lat="42.862603" lon="1.057944">
        <ele>1433.5</ele>
        <time>2013-02-03T10:24:02Z</time>
      </trkpt>
      <trkpt lat="42.862517" lon="1.057889">
        <ele>1433.5</ele>
        <time>2013-02-03T10:24:18Z</time>
      </trkpt>
      <trkpt lat="42.862426" lon="1.057835">
        <ele>1433.5</ele>
        <time>2013-02-03T10:24:33Z</time>
      </trkpt>
      <trkpt lat="42.862344" lon="1.057727">
        <ele>1433.5</ele>
        <time>2013-02-03T10:24:48Z</time>
      </trkpt>
      <trkpt lat="42.862250" lon="1.057643">
        <ele>1433.0</ele>
        <time>2013-02-03T10:25:01Z</time>
      </trkpt>
      <trkpt lat="42.862142" lon="1.057652">
        <ele>1433.0</ele>
        <time>2013-02-03T10:25:15Z</time>
      </trkpt>
      <trkpt lat="42.862029" lon="1.057650">
        <ele>1432.0</ele>
        <time>2013-02-03T10:25:28Z</time>
      </trkpt>
      <trkpt lat="42.861915" lon="1.057622">
        <ele>1432.0</ele>
        <time>2013-02-03T10:25:42Z</time>
      </trkpt>
      <trkpt lat="42.861800" lon="1.057627">
        <ele>1431.1</ele>
        <time>2013-02-03T10:25:54Z</time>
      </trkpt>
      <trkpt lat="42.861688" lon="1.057598">
        <ele>1430.1</ele>
        <time>2013-02-03T10:26:07Z</time>
      </trkpt>
      <trkpt lat="42.861592" lon="1.057551">
        <ele>1430.1</ele>
        <time>2013-02-03T10:26:19Z</time>
      </trkpt>
      <trkpt lat="42.861467" lon="1.057539">
        <ele>1429.1</ele>
        <time>2013-02-03T10:26:33Z</time>
      </trkpt>
      <trkpt lat="42.861356" lon="1.057530">
        <ele>1428.7</ele>
        <time>2013-02-03T10:26:45Z</time>
      </trkpt>
      <trkpt lat="42.861247" lon="1.057523">
        <ele>1428.2</ele>
        <time>2013-02-03T10:26:57Z</time>
      </trkpt>
      <trkpt lat="42.861137" lon="1.057523">
        <ele>1427.7</ele>
        <time>2013-02-03T10:27:10Z</time>
      </trkpt>
      <trkpt lat="42.861033" lon="1.057499">
        <ele>1427.2</ele>
        <time>2013-02-03T10:27:22Z</time>
      </trkpt>
      <trkpt lat="42.860929" lon="1.057484">
        <ele>1426.7</ele>
        <time>2013-02-03T10:27:35Z</time>
      </trkpt>
      <trkpt lat="42.860806" lon="1.057534">
        <ele>1425.8</ele>
        <time>2013-02-03T10:27:46Z</time>
      </trkpt>
      <trkpt lat="42.860703" lon="1.057562">
        <ele>1425.8</ele>
        <time>2013-02-03T10:28:00Z</time>
      </trkpt>
      <trkpt lat="42.860600" lon="1.057574">
        <ele>1425.3</ele>
        <time>2013-02-03T10:28:12Z</time>
      </trkpt>
      <trkpt lat="42.860494" lon="1.057594">
        <ele>1425.8</ele>
        <time>2013-02-03T10:28:23Z</time>
      </trkpt>
      <trkpt lat="42.860390" lon="1.057620">
        <ele>1424.8</ele>
        <time>2013-02-03T10:28:34Z</time>
      </trkpt>
      <trkpt lat="42.860272" lon="1.057688">
        <ele>1424.3</ele>
        <time>2013-02-03T10:28:47Z</time>
      </trkpt>
      <trkpt lat="42.860170" lon="1.057730">
        <ele>1424.3</ele>
        <time>2013-02-03T10:28:59Z</time>
      </trkpt>
      <trkpt lat="42.860075" lon="1.057785">
        <ele>1423.8</ele>
        <time>2013-02-03T10:29:12Z</time>
      </trkpt>
      <trkpt lat="42.859972" lon="1.057844">
        <ele>1423.4</ele>
        <time>2013-02-03T10:29:25Z</time>
      </trkpt>
      <trkpt lat="42.859870" lon="1.057889">
        <ele>1422.9</ele>
        <time>2013-02-03T10:29:36Z</time>
      </trkpt>
      <trkpt lat="42.859770" lon="1.057936">
        <ele>1422.4</ele>
        <time>2013-02-03T10:29:48Z</time>
      </trkpt>
      <trkpt lat="42.859678" lon="1.058016">
        <ele>1422.4</ele>
        <time>2013-02-03T10:30:03Z</time>
      </trkpt>
      <trkpt lat="42.859559" lon="1.058017">
        <ele>1422.4</ele>
        <time>2013-02-03T10:30:18Z</time>
      </trkpt>
      <trkpt lat="42.859450" lon="1.057998">
        <ele>1421.4</ele>
        <time>2013-02-03T10:30:30Z</time>
      </trkpt>
      <trkpt lat="42.859350" lon="1.057960">
        <ele>1421.4</ele>
        <time>2013-02-03T10:30:44Z</time>
      </trkpt>
      <trkpt lat="42.859232" lon="1.057893">
        <ele>1421.9</ele>
        <time>2013-02-03T10:30:59Z</time>
      </trkpt>
      <trkpt lat="42.859135" lon="1.057834">
        <ele>1421.0</ele>
        <time>2013-02-03T10:31:08Z</time>
      </trkpt>
      <trkpt lat="42.859067" lon="1.057959">
        <ele>1421.0</ele>
        <time>2013-02-03T10:31:20Z</time>
      </trkpt>
      <trkpt lat="42.859001" lon="1.058090">
        <ele>1422.4</ele>
        <time>2013-02-03T10:34:19Z</time>
      </trkpt>
      <trkpt lat="42.858915" lon="1.058182">
        <ele>1421.4</ele>
        <time>2013-02-03T10:34:34Z</time>
      </trkpt>
      <trkpt lat="42.858806" lon="1.058199">
        <ele>1421.0</ele>
        <time>2013-02-03T10:34:50Z</time>
      </trkpt>
      <trkpt lat="42.858676" lon="1.058175">
        <ele>1420.0</ele>
        <time>2013-02-03T10:35:03Z</time>
      </trkpt>
      <trkpt lat="42.858576" lon="1.058236">
        <ele>1420.0</ele>
        <time>2013-02-03T10:35:17Z</time>
      </trkpt>
      <trkpt lat="42.858474" lon="1.058294">
        <ele>1419.5</ele>
        <time>2013-02-03T10:35:30Z</time>
      </trkpt>
      <trkpt lat="42.858362" lon="1.058320">
        <ele>1419.5</ele>
        <time>2013-02-03T10:35:43Z</time>
      </trkpt>
      <trkpt lat="42.858271" lon="1.058368">
        <ele>1419.0</ele>
        <time>2013-02-03T10:35:55Z</time>
      </trkpt>
      <trkpt lat="42.858174" lon="1.058463">
        <ele>1418.6</ele>
        <time>2013-02-03T10:36:08Z</time>
      </trkpt>
      <trkpt lat="42.858090" lon="1.058574">
        <ele>1418.1</ele>
        <time>2013-02-03T10:36:19Z</time>
      </trkpt>
      <trkpt lat="42.858001" lon="1.058686">
        <ele>1417.6</ele>
        <time>2013-02-03T10:36:32Z</time>
      </trkpt>
      <trkpt lat="42.857925" lon="1.058803">
        <ele>1416.2</ele>
        <time>2013-02-03T10:36:44Z</time>
      </trkpt>
      <trkpt lat="42.857835" lon="1.058911">
        <ele>1415.2</ele>
        <time>2013-02-03T10:36:57Z</time>
      </trkpt>
      <trkpt lat="42.857726" lon="1.059012">
        <ele>1415.2</ele>
        <time>2013-02-03T10:37:10Z</time>
      </trkpt>
      <trkpt lat="42.857613" lon="1.059103">
        <ele>1414.7</ele>
        <time>2013-02-03T10:37:23Z</time>
      </trkpt>
      <trkpt lat="42.857521" lon="1.059205">
        <ele>1414.2</ele>
        <time>2013-02-03T10:37:37Z</time>
      </trkpt>
      <trkpt lat="42.857435" lon="1.059315">
        <ele>1413.3</ele>
        <time>2013-02-03T10:37:49Z</time>
      </trkpt>
      <trkpt lat="42.857347" lon="1.059422">
        <ele>1412.8</ele>
        <time>2013-02-03T10:38:02Z</time>
      </trkpt>
      <trkpt lat="42.857267" lon="1.059530">
        <ele>1412.3</ele>
        <time>2013-02-03T10:38:14Z</time>
      </trkpt>
      <trkpt lat="42.857179" lon="1.059641">
        <ele>1412.3</ele>
        <time>2013-02-03T10:38:27Z</time>
      </trkpt>
      <trkpt lat="42.857087" lon="1.059740">
        <ele>1412.3</ele>
        <time>2013-02-03T10:38:39Z</time>
      </trkpt>
      <trkpt lat="42.856973" lon="1.059835">
        <ele>1411.8</ele>
        <time>2013-02-03T10:38:51Z</time>
      </trkpt>
      <trkpt lat="42.856878" lon="1.059902">
        <ele>1411.8</ele>
        <time>2013-02-03T10:39:04Z</time>
      </trkpt>
      <trkpt lat="42.856786" lon="1.059965">
        <ele>1411.8</ele>
        <time>2013-02-03T10:39:18Z</time>
      </trkpt>
      <trkpt lat="42.856724" lon="1.060090">
        <ele>1411.3</ele>
        <time>2013-02-03T10:39:30Z</time>
      </trkpt>
      <trkpt lat="42.856666" lon="1.060230">
        <ele>1411.3</ele>
        <time>2013-02-03T10:39:43Z</time>
      </trkpt>
      <trkpt lat="42.856567" lon="1.060366">
        <ele>1411.3</ele>
        <time>2013-02-03T10:39:56Z</time>
      </trkpt>
      <trkpt lat="42.856466" lon="1.060474">
        <ele>1410.9</ele>
        <time>2013-02-03T10:40:11Z</time>
      </trkpt>
      <trkpt lat="42.856358" lon="1.060557">
        <ele>1410.4</ele>
        <time>2013-02-03T10:40:25Z</time>
      </trkpt>
      <trkpt lat="42.856253" lon="1.060649">
        <ele>1410.4</ele>
        <time>2013-02-03T10:40:38Z</time>
      </trkpt>
      <trkpt lat="42.856157" lon="1.060746">
        <ele>1410.4</ele>
        <time>2013-02-03T10:40:51Z</time>
      </trkpt>
      <trkpt lat="42.856056" lon="1.060839">
        <ele>1410.4</ele>
        <time>2013-02-03T10:41:04Z</time>
      </trkpt>
      <trkpt lat="42.855961" lon="1.060938">
        <ele>1409.4</ele>
        <time>2013-02-03T10:41:18Z</time>
      </trkpt>
      <trkpt lat="42.855865" lon="1.061006">
        <ele>1408.9</ele>
        <time>2013-02-03T10:41:31Z</time>
      </trkpt>
      <trkpt lat="42.855782" lon="1.061086">
        <ele>1409.4</ele>
        <time>2013-02-03T10:41:44Z</time>
      </trkpt>
      <trkpt lat="42.855703" lon="1.061206">
        <ele>1408.5</ele>
        <time>2013-02-03T10:41:58Z</time>
      </trkpt>
      <trkpt lat="42.855609" lon="1.061309">
        <ele>1408.5</ele>
        <time>2013-02-03T10:42:13Z</time>
      </trkpt>
      <trkpt lat="42.855519" lon="1.061418">
        <ele>1408.5</ele>
        <time>2013-02-03T10:42:27Z</time>
      </trkpt>
      <trkpt lat="42.855442" lon="1.061520">
        <ele>1408.0</ele>
        <time>2013-02-03T10:42:40Z</time>
      </trkpt>
      <trkpt lat="42.855364" lon="1.061619">
        <ele>1407.5</ele>
        <time>2013-02-03T10:42:55Z</time>
      </trkpt>
      <trkpt lat="42.855295" lon="1.061715">
        <ele>1406.6</ele>
        <time>2013-02-03T10:43:09Z</time>
      </trkpt>
      <trkpt lat="42.855207" lon="1.061830">
        <ele>1406.6</ele>
        <time>2013-02-03T10:43:23Z</time>
      </trkpt>
      <trkpt lat="42.855114" lon="1.061915">
        <ele>1406.1</ele>
        <time>2013-02-03T10:43:36Z</time>
      </trkpt>
      <trkpt lat="42.855030" lon="1.062001">
        <ele>1406.1</ele>
        <time>2013-02-03T10:43:49Z</time>
      </trkpt>
      <trkpt lat="42.854943" lon="1.062094">
        <ele>1406.1</ele>
        <time>2013-02-03T10:44:02Z</time>
      </trkpt>
      <trkpt lat="42.854859" lon="1.062179">
        <ele>1406.1</ele>
        <time>2013-02-03T10:44:15Z</time>
      </trkpt>
      <trkpt lat="42.854771" lon="1.062259">
        <ele>1405.6</ele>
        <time>2013-02-03T10:44:29Z</time>
      </trkpt>
      <trkpt lat="42.854692" lon="1.062346">
        <ele>1405.1</ele>
        <time>2013-02-03T10:44:45Z</time>
      </trkpt>
      <trkpt lat="42.854606" lon="1.062418">
        <ele>1405.1</ele>
        <time>2013-02-03T10:45:00Z</time>
      </trkpt>
      <trkpt lat="42.854518" lon="1.062528">
        <ele>1403.7</ele>
        <time>2013-02-03T10:45:17Z</time>
      </trkpt>
      <trkpt lat="42.854423" lon="1.062627">
        <ele>1403.7</ele>
        <time>2013-02-03T10:45:34Z</time>
      </trkpt>
      <trkpt lat="42.854356" lon="1.062734">
        <ele>1403.7</ele>
        <time>2013-02-03T10:45:52Z</time>
      </trkpt>
      <trkpt lat="42.854268" lon="1.062815">
        <ele>1404.1</ele>
        <time>2013-02-03T10:46:28Z</time>
      </trkpt>
      <trkpt lat="42.854191" lon="1.062915">
        <ele>1403.7</ele>
        <time>2013-02-03T10:46:43Z</time>
      </trkpt>
      <trkpt lat="42.854107" lon="1.062992">
        <ele>1404.1</ele>
        <time>2013-02-03T10:46:56Z</time>
      </trkpt>
      <trkpt lat="42.854005" lon="1.063065">
        <ele>1403.7</ele>
        <time>2013-02-03T10:47:10Z</time>
      </trkpt>
      <trkpt lat="42.853916" lon="1.063106">
        <ele>1403.7</ele>
        <time>2013-02-03T10:47:25Z</time>
      </trkpt>
      <trkpt lat="42.853828" lon="1.063146">
        <ele>1403.2</ele>
        <time>2013-02-03T10:47:40Z</time>
      </trkpt>
      <trkpt lat="42.853741" lon="1.063190">
        <ele>1402.2</ele>
        <time>2013-02-03T10:47:54Z</time>
      </trkpt>
      <trkpt lat="42.853631" lon="1.063196">
        <ele>1401.7</ele>
        <time>2013-02-03T10:48:08Z</time>
      </trkpt>
      <trkpt lat="42.853535" lon="1.063200">
        <ele>1401.7</ele>
        <time>2013-02-03T10:48:23Z</time>
      </trkpt>
      <trkpt lat="42.853427" lon="1.063183">
        <ele>1401.7</ele>
        <time>2013-02-03T10:48:37Z</time>
      </trkpt>
      <trkpt lat="42.853336" lon="1.063162">
        <ele>1401.3</ele>
        <time>2013-02-03T10:48:53Z</time>
      </trkpt>
      <trkpt lat="42.853244" lon="1.063131">
        <ele>1399.8</ele>
        <time>2013-02-03T10:49:12Z</time>
      </trkpt>
      <trkpt lat="42.853217" lon="1.063114">
        <ele>1400.3</ele>
        <time>2013-02-03T10:52:07Z</time>
      </trkpt>
      <trkpt lat="42.853106" lon="1.063101">
        <ele>1400.3</ele>
        <time>2013-02-03T10:52:19Z</time>
      </trkpt>
      <trkpt lat="42.853015" lon="1.063127">
        <ele>1400.3</ele>
        <time>2013-02-03T10:52:29Z</time>
      </trkpt>
      <trkpt lat="42.852922" lon="1.063146">
        <ele>1400.3</ele>
        <time>2013-02-03T10:52:41Z</time>
      </trkpt>
      <trkpt lat="42.852832" lon="1.063199">
        <ele>1400.8</ele>
        <time>2013-02-03T10:52:53Z</time>
      </trkpt>
      <trkpt lat="42.852753" lon="1.063249">
        <ele>1400.8</ele>
        <time>2013-02-03T10:53:05Z</time>
      </trkpt>
      <trkpt lat="42.852676" lon="1.063337">
        <ele>1400.8</ele>
        <time>2013-02-03T10:53:18Z</time>
      </trkpt>
      <trkpt lat="42.852577" lon="1.063404">
        <ele>1400.8</ele>
        <time>2013-02-03T10:53:36Z</time>
      </trkpt>
      <trkpt lat="42.852363" lon="1.063447">
        <ele>1419.7</ele>
        <time>2013-02-03T11:01:43Z</time>
      </trkpt>
      <trkpt lat="42.852286" lon="1.063465">
        <ele>1419.5</ele>
        <time>2013-02-03T11:36:22Z</time>
      </trkpt>
      <trkpt lat="42.852214" lon="1.063489">
        <ele>1404.6</ele>
        <time>2013-02-03T11:42:41Z</time>
        <name>Cabane de  Campuls</name>
      </trkpt>
      <trkpt lat="42.852249" lon="1.063450">
        <ele>1403.7</ele>
        <time>2013-02-03T11:48:09Z</time>
      </trkpt>
      <trkpt lat="42.852379" lon="1.063388">
        <ele>1402.7</ele>
        <time>2013-02-03T11:50:19Z</time>
      </trkpt>
      <trkpt lat="42.852466" lon="1.063387">
        <ele>1402.2</ele>
        <time>2013-02-03T11:50:31Z</time>
      </trkpt>
      <trkpt lat="42.852566" lon="1.063355">
        <ele>1402.7</ele>
        <time>2013-02-03T11:50:41Z</time>
      </trkpt>
      <trkpt lat="42.852660" lon="1.063300">
        <ele>1402.7</ele>
        <time>2013-02-03T11:50:50Z</time>
      </trkpt>
      <trkpt lat="42.852724" lon="1.063216">
        <ele>1403.2</ele>
        <time>2013-02-03T11:51:07Z</time>
      </trkpt>
      <trkpt lat="42.852820" lon="1.063127">
        <ele>1402.7</ele>
        <time>2013-02-03T11:51:24Z</time>
      </trkpt>
      <trkpt lat="42.852917" lon="1.063076">
        <ele>1402.7</ele>
        <time>2013-02-03T11:51:34Z</time>
      </trkpt>
      <trkpt lat="42.853015" lon="1.063081">
        <ele>1402.7</ele>
        <time>2013-02-03T11:51:45Z</time>
      </trkpt>
      <trkpt lat="42.853118" lon="1.063055">
        <ele>1402.7</ele>
        <time>2013-02-03T11:51:54Z</time>
      </trkpt>
      <trkpt lat="42.853216" lon="1.063079">
        <ele>1402.7</ele>
        <time>2013-02-03T11:52:03Z</time>
      </trkpt>
      <trkpt lat="42.853319" lon="1.063110">
        <ele>1403.2</ele>
        <time>2013-02-03T11:52:13Z</time>
      </trkpt>
      <trkpt lat="42.853419" lon="1.063138">
        <ele>1403.7</ele>
        <time>2013-02-03T11:52:22Z</time>
      </trkpt>
      <trkpt lat="42.853525" lon="1.063170">
        <ele>1403.7</ele>
        <time>2013-02-03T11:52:31Z</time>
      </trkpt>
      <trkpt lat="42.853642" lon="1.063161">
        <ele>1404.1</ele>
        <time>2013-02-03T11:52:40Z</time>
      </trkpt>
      <trkpt lat="42.853777" lon="1.063133">
        <ele>1404.1</ele>
        <time>2013-02-03T11:52:49Z</time>
      </trkpt>
      <trkpt lat="42.853877" lon="1.063085">
        <ele>1405.1</ele>
        <time>2013-02-03T11:52:58Z</time>
      </trkpt>
      <trkpt lat="42.853970" lon="1.063039">
        <ele>1405.1</ele>
        <time>2013-02-03T11:53:06Z</time>
      </trkpt>
      <trkpt lat="42.854064" lon="1.062987">
        <ele>1405.6</ele>
        <time>2013-02-03T11:53:14Z</time>
      </trkpt>
      <trkpt lat="42.854165" lon="1.062921">
        <ele>1405.6</ele>
        <time>2013-02-03T11:53:23Z</time>
      </trkpt>
      <trkpt lat="42.854238" lon="1.062834">
        <ele>1405.6</ele>
        <time>2013-02-03T11:53:31Z</time>
      </trkpt>
      <trkpt lat="42.854307" lon="1.062740">
        <ele>1405.6</ele>
        <time>2013-02-03T11:53:39Z</time>
      </trkpt>
      <trkpt lat="42.854379" lon="1.062632">
        <ele>1406.6</ele>
        <time>2013-02-03T11:53:48Z</time>
      </trkpt>
      <trkpt lat="42.854447" lon="1.062525">
        <ele>1407.0</ele>
        <time>2013-02-03T11:53:57Z</time>
      </trkpt>
      <trkpt lat="42.854514" lon="1.062432">
        <ele>1407.5</ele>
        <time>2013-02-03T11:54:06Z</time>
      </trkpt>
      <trkpt lat="42.854599" lon="1.062343">
        <ele>1407.0</ele>
        <time>2013-02-03T11:54:24Z</time>
      </trkpt>
      <trkpt lat="42.854693" lon="1.062255">
        <ele>1407.5</ele>
        <time>2013-02-03T11:54:33Z</time>
      </trkpt>
      <trkpt lat="42.854785" lon="1.062176">
        <ele>1408.0</ele>
        <time>2013-02-03T11:54:43Z</time>
      </trkpt>
      <trkpt lat="42.854872" lon="1.062098">
        <ele>1408.5</ele>
        <time>2013-02-03T11:54:52Z</time>
      </trkpt>
      <trkpt lat="42.854954" lon="1.062014">
        <ele>1408.5</ele>
        <time>2013-02-03T11:55:01Z</time>
      </trkpt>
      <trkpt lat="42.855037" lon="1.061936">
        <ele>1409.4</ele>
        <time>2013-02-03T11:55:10Z</time>
      </trkpt>
      <trkpt lat="42.855114" lon="1.061861">
        <ele>1409.9</ele>
        <time>2013-02-03T11:55:19Z</time>
      </trkpt>
      <trkpt lat="42.855196" lon="1.061782">
        <ele>1410.4</ele>
        <time>2013-02-03T11:55:28Z</time>
      </trkpt>
      <trkpt lat="42.855268" lon="1.061673">
        <ele>1410.9</ele>
        <time>2013-02-03T11:55:38Z</time>
      </trkpt>
      <trkpt lat="42.855341" lon="1.061585">
        <ele>1411.3</ele>
        <time>2013-02-03T11:55:48Z</time>
      </trkpt>
      <trkpt lat="42.855424" lon="1.061474">
        <ele>1411.3</ele>
        <time>2013-02-03T11:55:58Z</time>
      </trkpt>
      <trkpt lat="42.855502" lon="1.061374">
        <ele>1411.8</ele>
        <time>2013-02-03T11:56:08Z</time>
      </trkpt>
      <trkpt lat="42.855595" lon="1.061290">
        <ele>1411.8</ele>
        <time>2013-02-03T11:56:18Z</time>
      </trkpt>
      <trkpt lat="42.855674" lon="1.061190">
        <ele>1412.3</ele>
        <time>2013-02-03T11:56:28Z</time>
      </trkpt>
      <trkpt lat="42.855742" lon="1.061083">
        <ele>1412.8</ele>
        <time>2013-02-03T11:56:37Z</time>
      </trkpt>
      <trkpt lat="42.855815" lon="1.060973">
        <ele>1413.3</ele>
        <time>2013-02-03T11:56:47Z</time>
      </trkpt>
      <trkpt lat="42.855901" lon="1.060888">
        <ele>1413.3</ele>
        <time>2013-02-03T11:56:57Z</time>
      </trkpt>
      <trkpt lat="42.856007" lon="1.060833">
        <ele>1413.3</ele>
        <time>2013-02-03T11:57:07Z</time>
      </trkpt>
      <trkpt lat="42.856086" lon="1.060734">
        <ele>1413.8</ele>
        <time>2013-02-03T11:57:16Z</time>
      </trkpt>
      <trkpt lat="42.856172" lon="1.060653">
        <ele>1414.2</ele>
        <time>2013-02-03T11:57:25Z</time>
      </trkpt>
      <trkpt lat="42.856259" lon="1.060559">
        <ele>1414.2</ele>
        <time>2013-02-03T11:57:34Z</time>
      </trkpt>
      <trkpt lat="42.856345" lon="1.060478">
        <ele>1414.7</ele>
        <time>2013-02-03T11:57:43Z</time>
      </trkpt>
      <trkpt lat="42.856431" lon="1.060391">
        <ele>1415.2</ele>
        <time>2013-02-03T11:57:53Z</time>
      </trkpt>
      <trkpt lat="42.856516" lon="1.060290">
        <ele>1416.2</ele>
        <time>2013-02-03T11:58:03Z</time>
      </trkpt>
      <trkpt lat="42.856587" lon="1.060184">
        <ele>1415.7</ele>
        <time>2013-02-03T11:58:12Z</time>
      </trkpt>
      <trkpt lat="42.856661" lon="1.060087">
        <ele>1416.6</ele>
        <time>2013-02-03T11:58:21Z</time>
      </trkpt>
      <trkpt lat="42.856701" lon="1.059999">
        <ele>1416.2</ele>
        <time>2013-02-03T11:58:29Z</time>
      </trkpt>
      <trkpt lat="42.856760" lon="1.059906">
        <ele>1416.2</ele>
        <time>2013-02-03T11:58:38Z</time>
      </trkpt>
      <trkpt lat="42.856843" lon="1.059814">
        <ele>1416.2</ele>
        <time>2013-02-03T11:58:48Z</time>
      </trkpt>
      <trkpt lat="42.856932" lon="1.059740">
        <ele>1416.6</ele>
        <time>2013-02-03T11:58:59Z</time>
      </trkpt>
      <trkpt lat="42.857018" lon="1.059670">
        <ele>1417.1</ele>
        <time>2013-02-03T11:59:08Z</time>
      </trkpt>
      <trkpt lat="42.857109" lon="1.059578">
        <ele>1418.1</ele>
        <time>2013-02-03T11:59:18Z</time>
      </trkpt>
      <trkpt lat="42.857187" lon="1.059477">
        <ele>1418.1</ele>
        <time>2013-02-03T11:59:27Z</time>
      </trkpt>
      <trkpt lat="42.857261" lon="1.059385">
        <ele>1419.0</ele>
        <time>2013-02-03T11:59:36Z</time>
      </trkpt>
      <trkpt lat="42.857328" lon="1.059297">
        <ele>1419.0</ele>
        <time>2013-02-03T11:59:45Z</time>
      </trkpt>
      <trkpt lat="42.857399" lon="1.059205">
        <ele>1419.5</ele>
        <time>2013-02-03T11:59:55Z</time>
      </trkpt>
      <trkpt lat="42.857469" lon="1.059108">
        <ele>1420.0</ele>
        <time>2013-02-03T12:00:04Z</time>
      </trkpt>
      <trkpt lat="42.857545" lon="1.059014">
        <ele>1420.5</ele>
        <time>2013-02-03T12:00:13Z</time>
      </trkpt>
      <trkpt lat="42.857628" lon="1.058926">
        <ele>1421.0</ele>
        <time>2013-02-03T12:00:23Z</time>
      </trkpt>
      <trkpt lat="42.857711" lon="1.058853">
        <ele>1421.4</ele>
        <time>2013-02-03T12:00:34Z</time>
      </trkpt>
      <trkpt lat="42.857800" lon="1.058782">
        <ele>1421.9</ele>
        <time>2013-02-03T12:00:45Z</time>
      </trkpt>
      <trkpt lat="42.857895" lon="1.058703">
        <ele>1422.9</ele>
        <time>2013-02-03T12:00:55Z</time>
      </trkpt>
      <trkpt lat="42.857986" lon="1.058612">
        <ele>1423.4</ele>
        <time>2013-02-03T12:01:05Z</time>
      </trkpt>
      <trkpt lat="42.858060" lon="1.058514">
        <ele>1424.8</ele>
        <time>2013-02-03T12:01:14Z</time>
      </trkpt>
      <trkpt lat="42.858139" lon="1.058419">
        <ele>1425.3</ele>
        <time>2013-02-03T12:01:24Z</time>
      </trkpt>
      <trkpt lat="42.858198" lon="1.058317">
        <ele>1425.8</ele>
        <time>2013-02-03T12:01:33Z</time>
      </trkpt>
      <trkpt lat="42.858291" lon="1.058248">
        <ele>1425.8</ele>
        <time>2013-02-03T12:01:42Z</time>
      </trkpt>
      <trkpt lat="42.858401" lon="1.058209">
        <ele>1425.8</ele>
        <time>2013-02-03T12:01:51Z</time>
      </trkpt>
      <trkpt lat="42.858512" lon="1.058161">
        <ele>1425.8</ele>
        <time>2013-02-03T12:02:00Z</time>
      </trkpt>
      <trkpt lat="42.858624" lon="1.058102">
        <ele>1425.8</ele>
        <time>2013-02-03T12:02:10Z</time>
      </trkpt>
      <trkpt lat="42.858741" lon="1.058104">
        <ele>1426.2</ele>
        <time>2013-02-03T12:02:20Z</time>
      </trkpt>
      <trkpt lat="42.858869" lon="1.058094">
        <ele>1426.7</ele>
        <time>2013-02-03T12:02:30Z</time>
      </trkpt>
      <trkpt lat="42.858963" lon="1.058035">
        <ele>1427.2</ele>
        <time>2013-02-03T12:02:39Z</time>
      </trkpt>
      <trkpt lat="42.859033" lon="1.057951">
        <ele>1427.2</ele>
        <time>2013-02-03T12:02:48Z</time>
      </trkpt>
      <trkpt lat="42.859089" lon="1.057841">
        <ele>1427.2</ele>
        <time>2013-02-03T12:02:57Z</time>
      </trkpt>
      <trkpt lat="42.859181" lon="1.057840">
        <ele>1427.7</ele>
        <time>2013-02-03T12:03:07Z</time>
      </trkpt>
      <trkpt lat="42.859298" lon="1.057896">
        <ele>1428.2</ele>
        <time>2013-02-03T12:03:18Z</time>
      </trkpt>
      <trkpt lat="42.859423" lon="1.057913">
        <ele>1428.2</ele>
        <time>2013-02-03T12:03:29Z</time>
      </trkpt>
      <trkpt lat="42.859547" lon="1.057923">
        <ele>1428.2</ele>
        <time>2013-02-03T12:03:39Z</time>
      </trkpt>
      <trkpt lat="42.859659" lon="1.057900">
        <ele>1428.7</ele>
        <time>2013-02-03T12:03:48Z</time>
      </trkpt>
      <trkpt lat="42.859763" lon="1.057835">
        <ele>1428.2</ele>
        <time>2013-02-03T12:03:56Z</time>
      </trkpt>
      <trkpt lat="42.859842" lon="1.057749">
        <ele>1428.7</ele>
        <time>2013-02-03T12:04:05Z</time>
      </trkpt>
      <trkpt lat="42.859932" lon="1.057700">
        <ele>1429.1</ele>
        <time>2013-02-03T12:04:14Z</time>
      </trkpt>
      <trkpt lat="42.860031" lon="1.057641">
        <ele>1429.6</ele>
        <time>2013-02-03T12:04:23Z</time>
      </trkpt>
      <trkpt lat="42.860127" lon="1.057577">
        <ele>1430.1</ele>
        <time>2013-02-03T12:04:32Z</time>
      </trkpt>
      <trkpt lat="42.860215" lon="1.057522">
        <ele>1430.1</ele>
        <time>2013-02-03T12:04:42Z</time>
      </trkpt>
      <trkpt lat="42.860323" lon="1.057488">
        <ele>1431.1</ele>
        <time>2013-02-03T12:04:52Z</time>
      </trkpt>
      <trkpt lat="42.860432" lon="1.057486">
        <ele>1431.5</ele>
        <time>2013-02-03T12:05:02Z</time>
      </trkpt>
      <trkpt lat="42.860564" lon="1.057463">
        <ele>1432.0</ele>
        <time>2013-02-03T12:05:12Z</time>
      </trkpt>
      <trkpt lat="42.860668" lon="1.057439">
        <ele>1432.5</ele>
        <time>2013-02-03T12:05:21Z</time>
      </trkpt>
      <trkpt lat="42.860761" lon="1.057415">
        <ele>1433.0</ele>
        <time>2013-02-03T12:05:31Z</time>
      </trkpt>
      <trkpt lat="42.860865" lon="1.057398">
        <ele>1433.5</ele>
        <time>2013-02-03T12:05:41Z</time>
      </trkpt>
      <trkpt lat="42.860969" lon="1.057381">
        <ele>1434.4</ele>
        <time>2013-02-03T12:05:51Z</time>
      </trkpt>
      <trkpt lat="42.861092" lon="1.057375">
        <ele>1434.9</ele>
        <time>2013-02-03T12:06:02Z</time>
      </trkpt>
      <trkpt lat="42.861199" lon="1.057373">
        <ele>1435.4</ele>
        <time>2013-02-03T12:06:11Z</time>
      </trkpt>
      <trkpt lat="42.861331" lon="1.057390">
        <ele>1436.8</ele>
        <time>2013-02-03T12:06:22Z</time>
      </trkpt>
      <trkpt lat="42.861461" lon="1.057395">
        <ele>1437.3</ele>
        <time>2013-02-03T12:06:34Z</time>
      </trkpt>
      <trkpt lat="42.861573" lon="1.057429">
        <ele>1437.8</ele>
        <time>2013-02-03T12:06:44Z</time>
      </trkpt>
      <trkpt lat="42.861692" lon="1.057455">
        <ele>1438.8</ele>
        <time>2013-02-03T12:06:55Z</time>
      </trkpt>
      <trkpt lat="42.861801" lon="1.057486">
        <ele>1439.7</ele>
        <time>2013-02-03T12:07:06Z</time>
      </trkpt>
      <trkpt lat="42.861907" lon="1.057528">
        <ele>1440.2</ele>
        <time>2013-02-03T12:07:16Z</time>
      </trkpt>
      <trkpt lat="42.862063" lon="1.057544">
        <ele>1442.1</ele>
        <time>2013-02-03T12:07:29Z</time>
      </trkpt>
      <trkpt lat="42.862216" lon="1.057574">
        <ele>1442.1</ele>
        <time>2013-02-03T12:07:41Z</time>
      </trkpt>
      <trkpt lat="42.862386" lon="1.057680">
        <ele>1443.1</ele>
        <time>2013-02-03T12:07:53Z</time>
      </trkpt>
      <trkpt lat="42.862508" lon="1.057800">
        <ele>1443.1</ele>
        <time>2013-02-03T12:08:05Z</time>
      </trkpt>
      <trkpt lat="42.862604" lon="1.057884">
        <ele>1443.1</ele>
        <time>2013-02-03T12:08:18Z</time>
      </trkpt>
      <trkpt lat="42.862696" lon="1.057958">
        <ele>1443.6</ele>
        <time>2013-02-03T12:08:29Z</time>
      </trkpt>
      <trkpt lat="42.862815" lon="1.058085">
        <ele>1443.6</ele>
        <time>2013-02-03T12:08:42Z</time>
      </trkpt>
      <trkpt lat="42.862758" lon="1.058038">
        <ele>1443.1</ele>
        <time>2013-02-03T12:09:24Z</time>
      </trkpt>
      <trkpt lat="42.862778" lon="1.058130">
        <ele>1444.5</ele>
        <time>2013-02-03T12:15:11Z</time>
      </trkpt>
      <trkpt lat="42.862920" lon="1.058275">
        <ele>1445.0</ele>
        <time>2013-02-03T12:15:25Z</time>
      </trkpt>
      <trkpt lat="42.863042" lon="1.058410">
        <ele>1445.0</ele>
        <time>2013-02-03T12:15:37Z</time>
      </trkpt>
      <trkpt lat="42.863109" lon="1.058525">
        <ele>1445.5</ele>
        <time>2013-02-03T12:15:48Z</time>
      </trkpt>
      <trkpt lat="42.863167" lon="1.058648">
        <ele>1446.0</ele>
        <time>2013-02-03T12:16:00Z</time>
      </trkpt>
      <trkpt lat="42.863283" lon="1.058725">
        <ele>1446.0</ele>
        <time>2013-02-03T12:16:12Z</time>
      </trkpt>
      <trkpt lat="42.863383" lon="1.058875">
        <ele>1447.4</ele>
        <time>2013-02-03T12:16:24Z</time>
      </trkpt>
      <trkpt lat="42.863482" lon="1.058997">
        <ele>1446.9</ele>
        <time>2013-02-03T12:16:36Z</time>
      </trkpt>
      <trkpt lat="42.863554" lon="1.059151">
        <ele>1447.9</ele>
        <time>2013-02-03T12:16:49Z</time>
      </trkpt>
      <trkpt lat="42.863634" lon="1.059252">
        <ele>1448.4</ele>
        <time>2013-02-03T12:17:00Z</time>
      </trkpt>
      <trkpt lat="42.863748" lon="1.059385">
        <ele>1449.3</ele>
        <time>2013-02-03T12:17:12Z</time>
      </trkpt>
      <trkpt lat="42.863846" lon="1.059494">
        <ele>1449.8</ele>
        <time>2013-02-03T12:17:23Z</time>
      </trkpt>
      <trkpt lat="42.863952" lon="1.059597">
        <ele>1450.3</ele>
        <time>2013-02-03T12:17:36Z</time>
      </trkpt>
      <trkpt lat="42.864042" lon="1.059669">
        <ele>1451.2</ele>
        <time>2013-02-03T12:17:48Z</time>
      </trkpt>
      <trkpt lat="42.864171" lon="1.059736">
        <ele>1451.2</ele>
        <time>2013-02-03T12:17:59Z</time>
      </trkpt>
      <trkpt lat="42.864250" lon="1.059859">
        <ele>1450.8</ele>
        <time>2013-02-03T12:18:09Z</time>
      </trkpt>
      <trkpt lat="42.864316" lon="1.060015">
        <ele>1450.3</ele>
        <time>2013-02-03T12:18:19Z</time>
      </trkpt>
      <trkpt lat="42.864330" lon="1.060165">
        <ele>1449.3</ele>
        <time>2013-02-03T12:18:29Z</time>
      </trkpt>
      <trkpt lat="42.864356" lon="1.060325">
        <ele>1448.8</ele>
        <time>2013-02-03T12:18:39Z</time>
      </trkpt>
      <trkpt lat="42.864371" lon="1.060485">
        <ele>1447.9</ele>
        <time>2013-02-03T12:18:49Z</time>
      </trkpt>
      <trkpt lat="42.864405" lon="1.060637">
        <ele>1447.4</ele>
        <time>2013-02-03T12:18:59Z</time>
      </trkpt>
      <trkpt lat="42.864470" lon="1.060808">
        <ele>1446.4</ele>
        <time>2013-02-03T12:19:11Z</time>
      </trkpt>
      <trkpt lat="42.864588" lon="1.060986">
        <ele>1446.0</ele>
        <time>2013-02-03T12:19:23Z</time>
      </trkpt>
      <trkpt lat="42.864711" lon="1.061109">
        <ele>1445.0</ele>
        <time>2013-02-03T12:19:35Z</time>
      </trkpt>
      <trkpt lat="42.864839" lon="1.061246">
        <ele>1444.0</ele>
        <time>2013-02-03T12:19:48Z</time>
      </trkpt>
      <trkpt lat="42.864956" lon="1.061400">
        <ele>1443.6</ele>
        <time>2013-02-03T12:20:01Z</time>
      </trkpt>
      <trkpt lat="42.865047" lon="1.061547">
        <ele>1442.6</ele>
        <time>2013-02-03T12:20:12Z</time>
      </trkpt>
      <trkpt lat="42.865160" lon="1.061679">
        <ele>1441.2</ele>
        <time>2013-02-03T12:20:23Z</time>
      </trkpt>
      <trkpt lat="42.865241" lon="1.061796">
        <ele>1440.7</ele>
        <time>2013-02-03T12:20:33Z</time>
      </trkpt>
      <trkpt lat="42.865323" lon="1.061918">
        <ele>1440.2</ele>
        <time>2013-02-03T12:20:44Z</time>
      </trkpt>
      <trkpt lat="42.865394" lon="1.062060">
        <ele>1439.7</ele>
        <time>2013-02-03T12:20:54Z</time>
      </trkpt>
      <trkpt lat="42.865442" lon="1.062207">
        <ele>1439.7</ele>
        <time>2013-02-03T12:21:04Z</time>
      </trkpt>
      <trkpt lat="42.865442" lon="1.062366">
        <ele>1438.8</ele>
        <time>2013-02-03T12:21:13Z</time>
      </trkpt>
      <trkpt lat="42.865422" lon="1.062515">
        <ele>1438.3</ele>
        <time>2013-02-03T12:21:22Z</time>
      </trkpt>
      <trkpt lat="42.865343" lon="1.062641">
        <ele>1437.8</ele>
        <time>2013-02-03T12:21:31Z</time>
      </trkpt>
      <trkpt lat="42.865226" lon="1.062718">
        <ele>1436.8</ele>
        <time>2013-02-03T12:21:41Z</time>
      </trkpt>
      <trkpt lat="42.865081" lon="1.062780">
        <ele>1436.3</ele>
        <time>2013-02-03T12:21:52Z</time>
      </trkpt>
      <trkpt lat="42.864974" lon="1.062814">
        <ele>1435.9</ele>
        <time>2013-02-03T12:22:04Z</time>
      </trkpt>
      <trkpt lat="42.864839" lon="1.062826">
        <ele>1435.4</ele>
        <time>2013-02-03T12:22:15Z</time>
      </trkpt>
      <trkpt lat="42.864644" lon="1.062830">
        <ele>1433.9</ele>
        <time>2013-02-03T12:22:29Z</time>
      </trkpt>
      <trkpt lat="42.864431" lon="1.062818">
        <ele>1432.5</ele>
        <time>2013-02-03T12:22:47Z</time>
      </trkpt>
      <trkpt lat="42.864213" lon="1.062841">
        <ele>1432.0</ele>
        <time>2013-02-03T12:23:05Z</time>
      </trkpt>
      <trkpt lat="42.864028" lon="1.062848">
        <ele>1431.5</ele>
        <time>2013-02-03T12:23:17Z</time>
      </trkpt>
      <trkpt lat="42.863912" lon="1.062860">
        <ele>1430.1</ele>
        <time>2013-02-03T12:23:29Z</time>
      </trkpt>
      <trkpt lat="42.863798" lon="1.062909">
        <ele>1429.6</ele>
        <time>2013-02-03T12:23:40Z</time>
      </trkpt>
      <trkpt lat="42.863671" lon="1.063008">
        <ele>1429.6</ele>
        <time>2013-02-03T12:23:52Z</time>
      </trkpt>
      <trkpt lat="42.863547" lon="1.063115">
        <ele>1428.7</ele>
        <time>2013-02-03T12:24:01Z</time>
      </trkpt>
      <trkpt lat="42.863442" lon="1.063295">
        <ele>1428.2</ele>
        <time>2013-02-03T12:24:15Z</time>
      </trkpt>
      <trkpt lat="42.863346" lon="1.063460">
        <ele>1426.7</ele>
        <time>2013-02-03T12:24:30Z</time>
      </trkpt>
      <trkpt lat="42.863235" lon="1.063603">
        <ele>1426.2</ele>
        <time>2013-02-03T12:24:42Z</time>
      </trkpt>
      <trkpt lat="42.863173" lon="1.063720">
        <ele>1424.8</ele>
        <time>2013-02-03T12:24:52Z</time>
      </trkpt>
      <trkpt lat="42.863101" lon="1.063866">
        <ele>1424.3</ele>
        <time>2013-02-03T12:25:04Z</time>
      </trkpt>
      <trkpt lat="42.863024" lon="1.064013">
        <ele>1423.4</ele>
        <time>2013-02-03T12:25:15Z</time>
      </trkpt>
      <trkpt lat="42.862945" lon="1.064172">
        <ele>1421.9</ele>
        <time>2013-02-03T12:25:27Z</time>
      </trkpt>
      <trkpt lat="42.862884" lon="1.064321">
        <ele>1421.9</ele>
        <time>2013-02-03T12:25:37Z</time>
      </trkpt>
      <trkpt lat="42.862848" lon="1.064472">
        <ele>1421.0</ele>
        <time>2013-02-03T12:25:46Z</time>
      </trkpt>
      <trkpt lat="42.862821" lon="1.064623">
        <ele>1420.5</ele>
        <time>2013-02-03T12:25:55Z</time>
      </trkpt>
      <trkpt lat="42.862795" lon="1.064784">
        <ele>1419.5</ele>
        <time>2013-02-03T12:26:03Z</time>
      </trkpt>
      <trkpt lat="42.862765" lon="1.064948">
        <ele>1419.0</ele>
        <time>2013-02-03T12:26:12Z</time>
      </trkpt>
      <trkpt lat="42.862736" lon="1.065103">
        <ele>1417.6</ele>
        <time>2013-02-03T12:26:21Z</time>
      </trkpt>
      <trkpt lat="42.862704" lon="1.065257">
        <ele>1417.1</ele>
        <time>2013-02-03T12:26:30Z</time>
      </trkpt>
      <trkpt lat="42.862675" lon="1.065404">
        <ele>1416.6</ele>
        <time>2013-02-03T12:26:39Z</time>
      </trkpt>
      <trkpt lat="42.862631" lon="1.065534">
        <ele>1416.2</ele>
        <time>2013-02-03T12:26:48Z</time>
      </trkpt>
      <trkpt lat="42.862579" lon="1.065661">
        <ele>1415.2</ele>
        <time>2013-02-03T12:26:57Z</time>
      </trkpt>
      <trkpt lat="42.862506" lon="1.065781">
        <ele>1414.7</ele>
        <time>2013-02-03T12:27:06Z</time>
      </trkpt>
      <trkpt lat="42.862459" lon="1.065906">
        <ele>1414.2</ele>
        <time>2013-02-03T12:27:15Z</time>
      </trkpt>
      <trkpt lat="42.862415" lon="1.066045">
        <ele>1413.8</ele>
        <time>2013-02-03T12:27:24Z</time>
      </trkpt>
      <trkpt lat="42.862374" lon="1.066157">
        <ele>1413.3</ele>
        <time>2013-02-03T12:27:32Z</time>
      </trkpt>
      <trkpt lat="42.862310" lon="1.066269">
        <ele>1412.8</ele>
        <time>2013-02-03T12:27:41Z</time>
      </trkpt>
      <trkpt lat="42.862232" lon="1.066387">
        <ele>1412.8</ele>
        <time>2013-02-03T12:27:51Z</time>
      </trkpt>
      <trkpt lat="42.862147" lon="1.066501">
        <ele>1411.3</ele>
        <time>2013-02-03T12:28:03Z</time>
      </trkpt>
      <trkpt lat="42.862056" lon="1.066622">
        <ele>1410.9</ele>
        <time>2013-02-03T12:28:13Z</time>
      </trkpt>
      <trkpt lat="42.861991" lon="1.066726">
        <ele>1410.4</ele>
        <time>2013-02-03T12:28:22Z</time>
      </trkpt>
      <trkpt lat="42.861921" lon="1.066845">
        <ele>1409.4</ele>
        <time>2013-02-03T12:28:31Z</time>
      </trkpt>
      <trkpt lat="42.861874" lon="1.066986">
        <ele>1408.9</ele>
        <time>2013-02-03T12:28:41Z</time>
      </trkpt>
      <trkpt lat="42.861842" lon="1.067125">
        <ele>1408.9</ele>
        <time>2013-02-03T12:28:50Z</time>
      </trkpt>
      <trkpt lat="42.861820" lon="1.067248">
        <ele>1408.5</ele>
        <time>2013-02-03T12:31:15Z</time>
      </trkpt>
      <trkpt lat="42.861794" lon="1.067387">
        <ele>1408.0</ele>
        <time>2013-02-03T12:31:24Z</time>
      </trkpt>
      <trkpt lat="42.861787" lon="1.067523">
        <ele>1407.0</ele>
        <time>2013-02-03T12:31:33Z</time>
      </trkpt>
      <trkpt lat="42.861764" lon="1.067649">
        <ele>1407.0</ele>
        <time>2013-02-03T12:31:42Z</time>
      </trkpt>
      <trkpt lat="42.861751" lon="1.067776">
        <ele>1405.6</ele>
        <time>2013-02-03T12:31:57Z</time>
      </trkpt>
      <trkpt lat="42.861719" lon="1.067923">
        <ele>1400.8</ele>
        <time>2013-02-03T12:32:10Z</time>
      </trkpt>
      <trkpt lat="42.861689" lon="1.068102">
        <ele>1396.9</ele>
        <time>2013-02-03T12:32:21Z</time>
      </trkpt>
      <trkpt lat="42.861702" lon="1.068252">
        <ele>1393.6</ele>
        <time>2013-02-03T12:32:30Z</time>
      </trkpt>
      <trkpt lat="42.861744" lon="1.068370">
        <ele>1389.2</ele>
        <time>2013-02-03T12:32:40Z</time>
      </trkpt>
      <trkpt lat="42.861787" lon="1.068480">
        <ele>1386.8</ele>
        <time>2013-02-03T12:32:51Z</time>
      </trkpt>
      <trkpt lat="42.861860" lon="1.068599">
        <ele>1385.4</ele>
        <time>2013-02-03T12:33:07Z</time>
      </trkpt>
      <trkpt lat="42.861976" lon="1.068547">
        <ele>1384.9</ele>
        <time>2013-02-03T12:34:15Z</time>
      </trkpt>
      <trkpt lat="42.862009" lon="1.068579">
        <ele>1384.0</ele>
        <time>2013-02-03T12:35:13Z</time>
      </trkpt>
      <trkpt lat="42.862036" lon="1.068678">
        <ele>1383.5</ele>
        <time>2013-02-03T12:36:13Z</time>
      </trkpt>
      <trkpt lat="42.862070" lon="1.068730">
        <ele>1382.5</ele>
        <time>2013-02-03T12:44:20Z</time>
      </trkpt>
      <trkpt lat="42.862148" lon="1.068728">
        <ele>1380.1</ele>
        <time>2013-02-03T12:44:30Z</time>
      </trkpt>
      <trkpt lat="42.862234" lon="1.068753">
        <ele>1377.2</ele>
        <time>2013-02-03T12:44:38Z</time>
      </trkpt>
      <trkpt lat="42.862329" lon="1.068789">
        <ele>1373.4</ele>
        <time>2013-02-03T12:44:47Z</time>
      </trkpt>
      <trkpt lat="42.862418" lon="1.068770">
        <ele>1370.5</ele>
        <time>2013-02-03T12:44:55Z</time>
      </trkpt>
      <trkpt lat="42.862504" lon="1.068789">
        <ele>1366.7</ele>
        <time>2013-02-03T12:45:03Z</time>
      </trkpt>
      <trkpt lat="42.862592" lon="1.068838">
        <ele>1362.8</ele>
        <time>2013-02-03T12:45:11Z</time>
      </trkpt>
      <trkpt lat="42.862685" lon="1.068908">
        <ele>1358.5</ele>
        <time>2013-02-03T12:45:20Z</time>
      </trkpt>
      <trkpt lat="42.862762" lon="1.068965">
        <ele>1356.6</ele>
        <time>2013-02-03T12:45:28Z</time>
      </trkpt>
      <trkpt lat="42.862833" lon="1.069020">
        <ele>1353.7</ele>
        <time>2013-02-03T12:45:36Z</time>
      </trkpt>
      <trkpt lat="42.862916" lon="1.069083">
        <ele>1351.8</ele>
        <time>2013-02-03T12:45:44Z</time>
      </trkpt>
      <trkpt lat="42.862996" lon="1.069150">
        <ele>1349.3</ele>
        <time>2013-02-03T12:45:54Z</time>
      </trkpt>
      <trkpt lat="42.863097" lon="1.069193">
        <ele>1346.9</ele>
        <time>2013-02-03T12:46:02Z</time>
      </trkpt>
      <trkpt lat="42.863198" lon="1.069219">
        <ele>1344.1</ele>
        <time>2013-02-03T12:46:11Z</time>
      </trkpt>
      <trkpt lat="42.863284" lon="1.069255">
        <ele>1341.7</ele>
        <time>2013-02-03T12:46:20Z</time>
      </trkpt>
      <trkpt lat="42.863384" lon="1.069272">
        <ele>1339.2</ele>
        <time>2013-02-03T12:46:28Z</time>
      </trkpt>
      <trkpt lat="42.863516" lon="1.069284">
        <ele>1335.9</ele>
        <time>2013-02-03T12:46:36Z</time>
      </trkpt>
      <trkpt lat="42.863618" lon="1.069303">
        <ele>1333.0</ele>
        <time>2013-02-03T12:46:43Z</time>
      </trkpt>
      <trkpt lat="42.863731" lon="1.069310">
        <ele>1330.1</ele>
        <time>2013-02-03T12:46:52Z</time>
      </trkpt>
      <trkpt lat="42.863834" lon="1.069312">
        <ele>1327.7</ele>
        <time>2013-02-03T12:46:58Z</time>
      </trkpt>
      <trkpt lat="42.863927" lon="1.069349">
        <ele>1325.3</ele>
        <time>2013-02-03T12:47:05Z</time>
      </trkpt>
      <trkpt lat="42.864022" lon="1.069400">
        <ele>1322.4</ele>
        <time>2013-02-03T12:47:13Z</time>
      </trkpt>
      <trkpt lat="42.864100" lon="1.069456">
        <ele>1319.6</ele>
        <time>2013-02-03T12:47:20Z</time>
      </trkpt>
      <trkpt lat="42.864180" lon="1.069503">
        <ele>1316.2</ele>
        <time>2013-02-03T12:47:27Z</time>
      </trkpt>
      <trkpt lat="42.864275" lon="1.069553">
        <ele>1312.8</ele>
        <time>2013-02-03T12:47:34Z</time>
      </trkpt>
      <trkpt lat="42.864368" lon="1.069605">
        <ele>1308.0</ele>
        <time>2013-02-03T12:47:41Z</time>
      </trkpt>
      <trkpt lat="42.864481" lon="1.069648">
        <ele>1303.7</ele>
        <time>2013-02-03T12:47:48Z</time>
      </trkpt>
      <trkpt lat="42.864577" lon="1.069706">
        <ele>1300.8</ele>
        <time>2013-02-03T12:47:56Z</time>
      </trkpt>
      <trkpt lat="42.864650" lon="1.069812">
        <ele>1249.2</ele>
        <time>2013-02-03T12:48:03Z</time>
      </trkpt>
      <trkpt lat="42.864771" lon="1.069969">
        <ele>1242.0</ele>
        <time>2013-02-03T12:48:10Z</time>
      </trkpt>
      <trkpt lat="42.864851" lon="1.070047">
        <ele>1238.2</ele>
        <time>2013-02-03T12:48:17Z</time>
      </trkpt>
      <trkpt lat="42.864966" lon="1.070110">
        <ele>1234.0</ele>
        <time>2013-02-03T12:48:25Z</time>
      </trkpt>
      <trkpt lat="42.865075" lon="1.070235">
        <ele>1230.3</ele>
        <time>2013-02-03T12:48:32Z</time>
      </trkpt>
      <trkpt lat="42.865162" lon="1.070341">
        <ele>1227.2</ele>
        <time>2013-02-03T12:48:39Z</time>
      </trkpt>
      <trkpt lat="42.865251" lon="1.070435">
        <ele>1224.0</ele>
        <time>2013-02-03T12:48:47Z</time>
      </trkpt>
      <trkpt lat="42.865282" lon="1.070517">
        <ele>1222.7</ele>
        <time>2013-02-03T12:48:55Z</time>
      </trkpt>
      <trkpt lat="42.865394" lon="1.070670">
        <ele>1218.1</ele>
        <time>2013-02-03T12:49:02Z</time>
      </trkpt>
      <trkpt lat="42.865524" lon="1.070792">
        <ele>1212.8</ele>
        <time>2013-02-03T12:49:10Z</time>
      </trkpt>
      <trkpt lat="42.865607" lon="1.070870">
        <ele>1209.4</ele>
        <time>2013-02-03T12:49:20Z</time>
      </trkpt>
      <trkpt lat="42.865702" lon="1.070980">
        <ele>1206.7</ele>
        <time>2013-02-03T12:49:27Z</time>
      </trkpt>
      <trkpt lat="42.865819" lon="1.071109">
        <ele>1204.0</ele>
        <time>2013-02-03T12:49:34Z</time>
      </trkpt>
      <trkpt lat="42.865900" lon="1.071211">
        <ele>1201.8</ele>
        <time>2013-02-03T12:49:41Z</time>
      </trkpt>
      <trkpt lat="42.866006" lon="1.071266">
        <ele>1198.1</ele>
        <time>2013-02-03T12:49:49Z</time>
      </trkpt>
      <trkpt lat="42.866118" lon="1.071332">
        <ele>1194.3</ele>
        <time>2013-02-03T12:49:58Z</time>
      </trkpt>
      <trkpt lat="42.866222" lon="1.071364">
        <ele>1190.4</ele>
        <time>2013-02-03T12:50:09Z</time>
      </trkpt>
      <trkpt lat="42.866328" lon="1.071442">
        <ele>1187.3</ele>
        <time>2013-02-03T12:50:17Z</time>
      </trkpt>
      <trkpt lat="42.866408" lon="1.071497">
        <ele>1185.1</ele>
        <time>2013-02-03T12:50:27Z</time>
      </trkpt>
      <trkpt lat="42.866497" lon="1.071567">
        <ele>1182.7</ele>
        <time>2013-02-03T12:51:01Z</time>
      </trkpt>
      <trkpt lat="42.866546" lon="1.071658">
        <ele>1182.3</ele>
        <time>2013-02-03T12:51:13Z</time>
      </trkpt>
      <trkpt lat="42.866546" lon="1.071818">
        <ele>1181.0</ele>
        <time>2013-02-03T12:51:20Z</time>
      </trkpt>
      <trkpt lat="42.866457" lon="1.071908">
        <ele>1182.8</ele>
        <time>2013-02-03T12:51:31Z</time>
      </trkpt>
      <trkpt lat="42.866331" lon="1.071901">
        <ele>1186.7</ele>
        <time>2013-02-03T12:51:38Z</time>
      </trkpt>
      <trkpt lat="42.866184" lon="1.071889">
        <ele>1191.6</ele>
        <time>2013-02-03T12:51:45Z</time>
      </trkpt>
      <trkpt lat="42.866041" lon="1.071897">
        <ele>1196.1</ele>
        <time>2013-02-03T12:51:52Z</time>
      </trkpt>
      <trkpt lat="42.865908" lon="1.071928">
        <ele>1199.2</ele>
        <time>2013-02-03T12:51:58Z</time>
      </trkpt>
      <trkpt lat="42.865734" lon="1.072005">
        <ele>1200.3</ele>
        <time>2013-02-03T12:52:04Z</time>
      </trkpt>
      <trkpt lat="42.865573" lon="1.072054">
        <ele>1200.9</ele>
        <time>2013-02-03T12:52:10Z</time>
      </trkpt>
      <trkpt lat="42.865394" lon="1.072098">
        <ele>1201.0</ele>
        <time>2013-02-03T12:52:17Z</time>
      </trkpt>
      <trkpt lat="42.865325" lon="1.072120">
        <ele>1201.3</ele>
        <time>2013-02-03T12:54:16Z</time>
      </trkpt>
      <trkpt lat="42.865097" lon="1.072196">
        <ele>1200.7</ele>
        <time>2013-02-03T12:54:32Z</time>
      </trkpt>
      <trkpt lat="42.864931" lon="1.072196">
        <ele>1202.1</ele>
        <time>2013-02-03T12:54:46Z</time>
      </trkpt>
      <trkpt lat="42.864817" lon="1.072322">
        <ele>1190.2</ele>
        <time>2013-02-03T12:54:55Z</time>
      </trkpt>
      <trkpt lat="42.864678" lon="1.072302">
        <ele>1190.2</ele>
        <time>2013-02-03T12:58:16Z</time>
      </trkpt>
      <trkpt lat="42.864587" lon="1.072256">
        <ele>1189.3</ele>
        <time>2013-02-03T12:58:25Z</time>
      </trkpt>
      <trkpt lat="42.864494" lon="1.072223">
        <ele>1188.3</ele>
        <time>2013-02-03T12:58:35Z</time>
      </trkpt>
      <trkpt lat="42.864408" lon="1.072262">
        <ele>1186.4</ele>
        <time>2013-02-03T12:58:45Z</time>
      </trkpt>
      <trkpt lat="42.864386" lon="1.072371">
        <ele>1185.9</ele>
        <time>2013-02-03T12:58:55Z</time>
      </trkpt>
      <trkpt lat="42.864403" lon="1.072535">
        <ele>1185.4</ele>
        <time>2013-02-03T12:59:06Z</time>
      </trkpt>
      <trkpt lat="42.864411" lon="1.072669">
        <ele>1184.5</ele>
        <time>2013-02-03T12:59:14Z</time>
      </trkpt>
      <trkpt lat="42.864380" lon="1.072802">
        <ele>1183.5</ele>
        <time>2013-02-03T12:59:22Z</time>
      </trkpt>
      <trkpt lat="42.864309" lon="1.072932">
        <ele>1182.1</ele>
        <time>2013-02-03T12:59:31Z</time>
      </trkpt>
      <trkpt lat="42.864213" lon="1.073065">
        <ele>1179.2</ele>
        <time>2013-02-03T12:59:42Z</time>
      </trkpt>
      <trkpt lat="42.864128" lon="1.073223">
        <ele>1177.3</ele>
        <time>2013-02-03T12:59:54Z</time>
      </trkpt>
      <trkpt lat="42.864106" lon="1.073415">
        <ele>1175.3</ele>
        <time>2013-02-03T13:00:05Z</time>
      </trkpt>
      <trkpt lat="42.864111" lon="1.073581">
        <ele>1173.9</ele>
        <time>2013-02-03T13:00:14Z</time>
      </trkpt>
      <trkpt lat="42.864060" lon="1.073741">
        <ele>1172.9</ele>
        <time>2013-02-03T13:00:21Z</time>
      </trkpt>
      <trkpt lat="42.864014" lon="1.073885">
        <ele>1172.0</ele>
        <time>2013-02-03T13:00:29Z</time>
      </trkpt>
      <trkpt lat="42.863952" lon="1.074025">
        <ele>1170.5</ele>
        <time>2013-02-03T13:00:37Z</time>
      </trkpt>
      <trkpt lat="42.863904" lon="1.074166">
        <ele>1170.1</ele>
        <time>2013-02-03T13:00:46Z</time>
      </trkpt>
      <trkpt lat="42.863903" lon="1.074357">
        <ele>1168.6</ele>
        <time>2013-02-03T13:00:56Z</time>
      </trkpt>
      <trkpt lat="42.863979" lon="1.074451">
        <ele>1167.7</ele>
        <time>2013-02-03T13:01:04Z</time>
      </trkpt>
      <trkpt lat="42.864099" lon="1.074450">
        <ele>1166.2</ele>
        <time>2013-02-03T13:01:11Z</time>
      </trkpt>
      <trkpt lat="42.864189" lon="1.074495">
        <ele>1165.3</ele>
        <time>2013-02-03T13:01:18Z</time>
      </trkpt>
      <trkpt lat="42.864277" lon="1.074542">
        <ele>1164.3</ele>
        <time>2013-02-03T13:01:25Z</time>
      </trkpt>
      <trkpt lat="42.864373" lon="1.074597">
        <ele>1162.8</ele>
        <time>2013-02-03T13:01:32Z</time>
      </trkpt>
      <trkpt lat="42.864474" lon="1.074647">
        <ele>1162.4</ele>
        <time>2013-02-03T13:01:39Z</time>
      </trkpt>
      <trkpt lat="42.864585" lon="1.074729">
        <ele>1160.9</ele>
        <time>2013-02-03T13:01:47Z</time>
      </trkpt>
      <trkpt lat="42.864673" lon="1.074794">
        <ele>1160.0</ele>
        <time>2013-02-03T13:01:54Z</time>
      </trkpt>
      <trkpt lat="42.864771" lon="1.074891">
        <ele>1158.5</ele>
        <time>2013-02-03T13:02:02Z</time>
      </trkpt>
      <trkpt lat="42.864843" lon="1.074989">
        <ele>1157.1</ele>
        <time>2013-02-03T13:02:10Z</time>
      </trkpt>
      <trkpt lat="42.864907" lon="1.075104">
        <ele>1156.1</ele>
        <time>2013-02-03T13:02:18Z</time>
      </trkpt>
      <trkpt lat="42.864966" lon="1.075221">
        <ele>1155.2</ele>
        <time>2013-02-03T13:02:27Z</time>
      </trkpt>
      <trkpt lat="42.865001" lon="1.075378">
        <ele>1153.7</ele>
        <time>2013-02-03T13:02:36Z</time>
      </trkpt>
      <trkpt lat="42.865041" lon="1.075545">
        <ele>1152.3</ele>
        <time>2013-02-03T13:02:45Z</time>
      </trkpt>
      <trkpt lat="42.865095" lon="1.075702">
        <ele>1150.8</ele>
        <time>2013-02-03T13:02:54Z</time>
      </trkpt>
      <trkpt lat="42.865137" lon="1.075844">
        <ele>1149.4</ele>
        <time>2013-02-03T13:03:02Z</time>
      </trkpt>
      <trkpt lat="42.865141" lon="1.076004">
        <ele>1147.5</ele>
        <time>2013-02-03T13:03:10Z</time>
      </trkpt>
      <trkpt lat="42.865110" lon="1.076180">
        <ele>1146.0</ele>
        <time>2013-02-03T13:03:19Z</time>
      </trkpt>
      <trkpt lat="42.865046" lon="1.076352">
        <ele>1144.6</ele>
        <time>2013-02-03T13:03:29Z</time>
      </trkpt>
      <trkpt lat="42.865005" lon="1.076513">
        <ele>1143.1</ele>
        <time>2013-02-03T13:03:39Z</time>
      </trkpt>
      <trkpt lat="42.864968" lon="1.076702">
        <ele>1141.7</ele>
        <time>2013-02-03T13:03:50Z</time>
      </trkpt>
      <trkpt lat="42.864991" lon="1.076856">
        <ele>1140.7</ele>
        <time>2013-02-03T13:03:59Z</time>
      </trkpt>
      <trkpt lat="42.865058" lon="1.076971">
        <ele>1139.8</ele>
        <time>2013-02-03T13:04:06Z</time>
      </trkpt>
      <trkpt lat="42.865127" lon="1.077066">
        <ele>1138.3</ele>
        <time>2013-02-03T13:04:13Z</time>
      </trkpt>
      <trkpt lat="42.865229" lon="1.077142">
        <ele>1137.4</ele>
        <time>2013-02-03T13:04:20Z</time>
      </trkpt>
      <trkpt lat="42.865318" lon="1.077236">
        <ele>1135.9</ele>
        <time>2013-02-03T13:04:27Z</time>
      </trkpt>
      <trkpt lat="42.865402" lon="1.077343">
        <ele>1135.0</ele>
        <time>2013-02-03T13:04:35Z</time>
      </trkpt>
      <trkpt lat="42.865474" lon="1.077449">
        <ele>1133.5</ele>
        <time>2013-02-03T13:04:42Z</time>
      </trkpt>
      <trkpt lat="42.865529" lon="1.077588">
        <ele>1132.6</ele>
        <time>2013-02-03T13:04:50Z</time>
      </trkpt>
      <trkpt lat="42.865588" lon="1.077725">
        <ele>1131.1</ele>
        <time>2013-02-03T13:04:58Z</time>
      </trkpt>
      <trkpt lat="42.865631" lon="1.077858">
        <ele>1129.7</ele>
        <time>2013-02-03T13:05:06Z</time>
      </trkpt>
      <trkpt lat="42.865676" lon="1.077983">
        <ele>1128.2</ele>
        <time>2013-02-03T13:05:14Z</time>
      </trkpt>
      <trkpt lat="42.865726" lon="1.078121">
        <ele>1127.3</ele>
        <time>2013-02-03T13:05:22Z</time>
      </trkpt>
      <trkpt lat="42.865781" lon="1.078263">
        <ele>1126.3</ele>
        <time>2013-02-03T13:05:30Z</time>
      </trkpt>
      <trkpt lat="42.865835" lon="1.078386">
        <ele>1124.4</ele>
        <time>2013-02-03T13:05:38Z</time>
      </trkpt>
      <trkpt lat="42.865884" lon="1.078522">
        <ele>1123.0</ele>
        <time>2013-02-03T13:05:46Z</time>
      </trkpt>
      <trkpt lat="42.865940" lon="1.078662">
        <ele>1121.0</ele>
        <time>2013-02-03T13:05:54Z</time>
      </trkpt>
      <trkpt lat="42.865993" lon="1.078809">
        <ele>1119.6</ele>
        <time>2013-02-03T13:06:03Z</time>
      </trkpt>
      <trkpt lat="42.866030" lon="1.078970">
        <ele>1118.6</ele>
        <time>2013-02-03T13:06:12Z</time>
      </trkpt>
      <trkpt lat="42.866070" lon="1.079110">
        <ele>1117.2</ele>
        <time>2013-02-03T13:06:20Z</time>
      </trkpt>
      <trkpt lat="42.866097" lon="1.079276">
        <ele>1115.8</ele>
        <time>2013-02-03T13:06:29Z</time>
      </trkpt>
      <trkpt lat="42.866067" lon="1.079454">
        <ele>1114.3</ele>
        <time>2013-02-03T13:06:38Z</time>
      </trkpt>
      <trkpt lat="42.866020" lon="1.079613">
        <ele>1113.3</ele>
        <time>2013-02-03T13:06:48Z</time>
      </trkpt>
      <trkpt lat="42.865981" lon="1.079800">
        <ele>1111.4</ele>
        <time>2013-02-03T13:06:58Z</time>
      </trkpt>
      <trkpt lat="42.865894" lon="1.079953">
        <ele>1110.0</ele>
        <time>2013-02-03T13:07:09Z</time>
      </trkpt>
      <trkpt lat="42.865786" lon="1.080083">
        <ele>1107.6</ele>
        <time>2013-02-03T13:07:18Z</time>
      </trkpt>
      <trkpt lat="42.865667" lon="1.080167">
        <ele>1106.6</ele>
        <time>2013-02-03T13:07:28Z</time>
      </trkpt>
      <trkpt lat="42.865567" lon="1.080241">
        <ele>1104.2</ele>
        <time>2013-02-03T13:07:39Z</time>
      </trkpt>
      <trkpt lat="42.865440" lon="1.080300">
        <ele>1102.8</ele>
        <time>2013-02-03T13:07:49Z</time>
      </trkpt>
      <trkpt lat="42.865313" lon="1.080322">
        <ele>1101.3</ele>
        <time>2013-02-03T13:07:58Z</time>
      </trkpt>
      <trkpt lat="42.865182" lon="1.080335">
        <ele>1099.9</ele>
        <time>2013-02-03T13:08:06Z</time>
      </trkpt>
      <trkpt lat="42.865086" lon="1.080383">
        <ele>1098.4</ele>
        <time>2013-02-03T13:08:14Z</time>
      </trkpt>
      <trkpt lat="42.864998" lon="1.080491">
        <ele>1097.5</ele>
        <time>2013-02-03T13:08:23Z</time>
      </trkpt>
      <trkpt lat="42.864887" lon="1.080615">
        <ele>1096.0</ele>
        <time>2013-02-03T13:08:31Z</time>
      </trkpt>
      <trkpt lat="42.864792" lon="1.080727">
        <ele>1095.1</ele>
        <time>2013-02-03T13:08:39Z</time>
      </trkpt>
      <trkpt lat="42.864706" lon="1.080777">
        <ele>1093.6</ele>
        <time>2013-02-03T13:08:46Z</time>
      </trkpt>
      <trkpt lat="42.864626" lon="1.080862">
        <ele>1092.2</ele>
        <time>2013-02-03T13:08:53Z</time>
      </trkpt>
      <trkpt lat="42.864545" lon="1.080957">
        <ele>1091.2</ele>
        <time>2013-02-03T13:09:01Z</time>
      </trkpt>
      <trkpt lat="42.864450" lon="1.081062">
        <ele>1090.3</ele>
        <time>2013-02-03T13:09:09Z</time>
      </trkpt>
      <trkpt lat="42.864348" lon="1.081172">
        <ele>1088.8</ele>
        <time>2013-02-03T13:09:18Z</time>
      </trkpt>
      <trkpt lat="42.864247" lon="1.081258">
        <ele>1087.4</ele>
        <time>2013-02-03T13:09:27Z</time>
      </trkpt>
      <trkpt lat="42.864136" lon="1.081344">
        <ele>1085.9</ele>
        <time>2013-02-03T13:09:36Z</time>
      </trkpt>
      <trkpt lat="42.864047" lon="1.081390">
        <ele>1084.5</ele>
        <time>2013-02-03T13:09:45Z</time>
      </trkpt>
      <trkpt lat="42.863952" lon="1.081469">
        <ele>1083.1</ele>
        <time>2013-02-03T13:09:55Z</time>
      </trkpt>
      <trkpt lat="42.863846" lon="1.081542">
        <ele>1082.1</ele>
        <time>2013-02-03T13:10:04Z</time>
      </trkpt>
      <trkpt lat="42.863720" lon="1.081610">
        <ele>1079.7</ele>
        <time>2013-02-03T13:10:14Z</time>
      </trkpt>
      <trkpt lat="42.863596" lon="1.081659">
        <ele>1078.3</ele>
        <time>2013-02-03T13:10:23Z</time>
      </trkpt>
      <trkpt lat="42.863476" lon="1.081672">
        <ele>1077.3</ele>
        <time>2013-02-03T13:10:31Z</time>
      </trkpt>
      <trkpt lat="42.863351" lon="1.081715">
        <ele>1075.4</ele>
        <time>2013-02-03T13:10:41Z</time>
      </trkpt>
      <trkpt lat="42.863241" lon="1.081804">
        <ele>1073.9</ele>
        <time>2013-02-03T13:10:50Z</time>
      </trkpt>
      <trkpt lat="42.863139" lon="1.081878">
        <ele>1072.5</ele>
        <time>2013-02-03T13:10:57Z</time>
      </trkpt>
      <trkpt lat="42.863037" lon="1.081949">
        <ele>1071.5</ele>
        <time>2013-02-03T13:11:05Z</time>
      </trkpt>
      <trkpt lat="42.862942" lon="1.082026">
        <ele>1070.6</ele>
        <time>2013-02-03T13:11:12Z</time>
      </trkpt>
      <trkpt lat="42.862818" lon="1.082111">
        <ele>1069.6</ele>
        <time>2013-02-03T13:11:21Z</time>
      </trkpt>
      <trkpt lat="42.862676" lon="1.082210">
        <ele>1067.2</ele>
        <time>2013-02-03T13:11:30Z</time>
      </trkpt>
      <trkpt lat="42.862559" lon="1.082331">
        <ele>1065.8</ele>
        <time>2013-02-03T13:11:40Z</time>
      </trkpt>
      <trkpt lat="42.862453" lon="1.082404">
        <ele>1064.3</ele>
        <time>2013-02-03T13:11:48Z</time>
      </trkpt>
      <trkpt lat="42.862349" lon="1.082451">
        <ele>1063.4</ele>
        <time>2013-02-03T13:11:56Z</time>
      </trkpt>
      <trkpt lat="42.862254" lon="1.082519">
        <ele>1062.4</ele>
        <time>2013-02-03T13:12:04Z</time>
      </trkpt>
      <trkpt lat="42.862149" lon="1.082566">
        <ele>1061.4</ele>
        <time>2013-02-03T13:12:12Z</time>
      </trkpt>
      <trkpt lat="42.862041" lon="1.082609">
        <ele>1060.5</ele>
        <time>2013-02-03T13:12:20Z</time>
      </trkpt>
      <trkpt lat="42.861931" lon="1.082655">
        <ele>1059.0</ele>
        <time>2013-02-03T13:12:29Z</time>
      </trkpt>
      <trkpt lat="42.861824" lon="1.082786">
        <ele>1057.6</ele>
        <time>2013-02-03T13:12:40Z</time>
      </trkpt>
      <trkpt lat="42.861788" lon="1.082986">
        <ele>1056.2</ele>
        <time>2013-02-03T13:12:50Z</time>
      </trkpt>
      <trkpt lat="42.861847" lon="1.083093">
        <ele>1055.7</ele>
        <time>2013-02-03T13:12:58Z</time>
      </trkpt>
      <trkpt lat="42.861946" lon="1.083199">
        <ele>1054.7</ele>
        <time>2013-02-03T13:13:08Z</time>
      </trkpt>
      <trkpt lat="42.862012" lon="1.083331">
        <ele>1053.3</ele>
        <time>2013-02-03T13:13:16Z</time>
      </trkpt>
      <trkpt lat="42.862056" lon="1.083470">
        <ele>1052.3</ele>
        <time>2013-02-03T13:13:23Z</time>
      </trkpt>
      <trkpt lat="42.862081" lon="1.083613">
        <ele>1051.3</ele>
        <time>2013-02-03T13:13:30Z</time>
      </trkpt>
      <trkpt lat="42.862124" lon="1.083746">
        <ele>1049.9</ele>
        <time>2013-02-03T13:13:37Z</time>
      </trkpt>
      <trkpt lat="42.862166" lon="1.083885">
        <ele>1048.4</ele>
        <time>2013-02-03T13:13:45Z</time>
      </trkpt>
      <trkpt lat="42.862209" lon="1.084035">
        <ele>1047.5</ele>
        <time>2013-02-03T13:13:55Z</time>
      </trkpt>
      <trkpt lat="42.862263" lon="1.084181">
        <ele>1046.5</ele>
        <time>2013-02-03T13:14:05Z</time>
      </trkpt>
      <trkpt lat="42.862318" lon="1.084339">
        <ele>1046.1</ele>
        <time>2013-02-03T13:14:16Z</time>
      </trkpt>
      <trkpt lat="42.862373" lon="1.084458">
        <ele>1046.1</ele>
        <time>2013-02-03T13:14:39Z</time>
      </trkpt>
      <trkpt lat="42.862435" lon="1.084564">
        <ele>1045.6</ele>
        <time>2013-02-03T13:15:07Z</time>
      </trkpt>
      <trkpt lat="42.862505" lon="1.084693">
        <ele>1046.1</ele>
        <time>2013-02-03T13:15:20Z</time>
      </trkpt>
      <trkpt lat="42.862606" lon="1.084739">
        <ele>1045.6</ele>
        <time>2013-02-03T13:15:36Z</time>
      </trkpt>
      <trkpt lat="42.862724" lon="1.084780">
        <ele>1046.1</ele>
        <time>2013-02-03T13:15:53Z</time>
      </trkpt>
      <trkpt lat="42.862868" lon="1.084788">
        <ele>1046.1</ele>
        <time>2013-02-03T13:16:06Z</time>
      </trkpt>
      <trkpt lat="42.863001" lon="1.084817">
        <ele>1046.5</ele>
        <time>2013-02-03T13:16:18Z</time>
      </trkpt>
      <trkpt lat="42.863115" lon="1.084848">
        <ele>1047.0</ele>
        <time>2013-02-03T13:16:35Z</time>
      </trkpt>
      <trkpt lat="42.863262" lon="1.084941">
        <ele>1047.5</ele>
        <time>2013-02-03T13:16:49Z</time>
      </trkpt>
      <trkpt lat="42.863356" lon="1.085034">
        <ele>1047.5</ele>
        <time>2013-02-03T13:17:01Z</time>
      </trkpt>
      <trkpt lat="42.863486" lon="1.085084">
        <ele>1048.0</ele>
        <time>2013-02-03T13:17:10Z</time>
      </trkpt>
      <trkpt lat="42.863564" lon="1.085144">
        <ele>1048.0</ele>
        <time>2013-02-03T13:17:20Z</time>
      </trkpt>
      <trkpt lat="42.863656" lon="1.085217">
        <ele>1048.9</ele>
        <time>2013-02-03T13:17:30Z</time>
      </trkpt>
      <trkpt lat="42.863764" lon="1.085287">
        <ele>1048.4</ele>
        <time>2013-02-03T13:17:40Z</time>
      </trkpt>
    </trkseg>
  </trk>
</gpx>

